Time,TemperatureF,DewpointF,PressureIn,WindDirection,WindDirectionDegrees,WindSpeedMPH,WindSpeedGustMPH,Humidity,HourlyPrecipIn,Conditions,Clouds,dailyrainin,SoftwareType,DateUTC
2013-02-25 00:00:00,32.1,27.2,30.09,West,263,3.0,6.0,82,0.00,,,0.00,Wunderground v.1.15,2013-02-25 05:00:00,
2013-02-25 00:01:00,32.1,27.2,30.09,WSW,257,3.0,6.0,82,0.00,,,0.00,Wunderground v.1.15,2013-02-25 05:01:00,
2013-02-25 00:02:00,32.1,27.2,30.10,WNW,289,3.0,6.0,82,0.00,,,0.00,Wunderground v.1.15,2013-02-25 05:02:00,
2013-02-25 00:05:00,32.1,27.2,30.10,West,271,3.0,6.0,82,0.00,,,0.00,Wunderground v.1.15,2013-02-25 05:05:00,
2013-02-25 00:07:00,32.1,27.2,30.10,WSW,249,3.0,6.0,82,0.00,,,0.00,Wunderground v.1.15,2013-02-25 05:07:00,
2013-02-25 00:08:00,32.1,27.2,30.09,WNW,301,3.0,6.0,82,0.00,,,0.00,Wunderground v.1.15,2013-02-25 05:08:00,
2013-02-25 00:10:00,32.1,27.2,30.10,West,278,3.0,3.0,82,0.00,,,0.00,Wunderground v.1.15,2013-02-25 05:10:00,
2013-02-25 00:12:00,32.1,27.2,30.09,WSW,255,3.0,5.0,82,0.00,,,0.00,Wunderground v.1.15,2013-02-25 05:12:00,
2013-02-25 00:13:00,32.1,27.2,30.10,West,265,3.0,5.0,82,0.00,,,0.00,Wunderground v.1.15,2013-02-25 05:13:00,
2013-02-25 00:16:00,32.1,27.2,30.09,West,259,3.0,7.0,82,0.00,,,0.00,Wunderground v.1.15,2013-02-25 05:16:00,
2013-02-25 00:19:00,32.2,27.3,30.10,West,266,4.0,7.0,82,0.00,,,0.00,Wunderground v.1.15,2013-02-25 05:19:00,
2013-02-25 00:21:00,32.1,27.2,30.10,SW,236,4.0,5.0,82,0.00,,,0.00,Wunderground v.1.15,2013-02-25 05:21:00,
2013-02-25 00:22:00,32.2,27.3,30.10,WSW,257,4.0,5.0,82,0.00,,,0.00,Wunderground v.1.15,2013-02-25 05:22:00,
2013-02-25 00:24:00,32.1,27.2,30.10,WNW,289,4.0,5.0,82,0.00,,,0.00,Wunderground v.1.15,2013-02-25 05:24:00,
2013-02-25 00:25:00,32.1,27.2,30.10,WSW,247,4.0,6.0,82,0.00,,,0.00,Wunderground v.1.15,2013-02-25 05:25:00,
2013-02-25 00:28:00,32.2,27.3,30.10,WNW,288,3.0,6.0,82,0.00,,,0.00,Wunderground v.1.15,2013-02-25 05:28:00,
2013-02-25 00:30:00,32.1,27.2,30.10,West,280,3.0,3.0,82,0.00,,,0.00,Wunderground v.1.15,2013-02-25 05:30:00,
2013-02-25 00:33:00,32.1,27.2,30.10,WSW,250,3.0,5.0,82,0.00,,,0.00,Wunderground v.1.15,2013-02-25 05:33:00,
2013-02-25 00:35:00,32.1,27.2,30.11,West,274,3.0,5.0,82,0.00,,,0.00,Wunderground v.1.15,2013-02-25 05:35:00,
2013-02-25 00:36:00,32.1,27.2,30.10,WNW,290,3.0,5.0,82,0.00,,,0.00,Wunderground v.1.15,2013-02-25 05:36:00,
2013-02-25 00:38:00,32.1,27.2,30.10,SW,236,3.0,5.0,82,0.00,,,0.00,Wunderground v.1.15,2013-02-25 05:38:00,
2013-02-25 00:39:00,32.1,27.2,30.11,WSW,245,3.0,5.0,82,0.00,,,0.00,Wunderground v.1.15,2013-02-25 05:39:00,
2013-02-25 00:42:00,32.1,27.2,30.11,WSW,255,4.0,5.0,82,0.00,,,0.00,Wunderground v.1.15,2013-02-25 05:42:00,
2013-02-25 00:43:00,32.1,27.2,30.11,SW,233,4.0,6.0,82,0.00,,,0.00,Wunderground v.1.15,2013-02-25 05:43:00,
2013-02-25 00:45:00,32.1,27.2,30.11,West,267,4.0,6.0,82,0.00,,,0.00,Wunderground v.1.15,2013-02-25 05:45:00,
2013-02-25 00:48:00,32.1,27.2,30.11,West,281,4.0,6.0,82,0.00,,,0.00,Wunderground v.1.15,2013-02-25 05:48:00,
2013-02-25 00:49:00,32.1,27.2,30.11,West,281,3.0,6.0,82,0.00,,,0.00,Wunderground v.1.15,2013-02-25 05:49:00,
2013-02-25 00:50:00,32.1,27.2,30.11,West,274,3.0,5.0,82,0.00,,,0.00,Wunderground v.1.15,2013-02-25 05:50:00,
2013-02-25 00:54:00,32.1,27.2,30.11,West,270,3.0,5.0,82,0.00,,,0.00,Wunderground v.1.15,2013-02-25 05:54:00,
2013-02-25 00:55:00,32.1,27.2,30.11,West,269,3.0,5.0,82,0.00,,,0.00,Wunderground v.1.15,2013-02-25 05:55:00,
2013-02-25 00:56:00,32.1,27.2,30.11,WNW,285,3.0,5.0,82,0.00,,,0.00,Wunderground v.1.15,2013-02-25 05:56:00,
2013-02-25 01:00:00,32.0,27.1,30.11,WSW,252,3.0,3.0,82,0.00,,,0.00,Wunderground v.1.15,2013-02-25 06:00:00,
2013-02-25 01:01:00,32.0,27.1,30.11,WNW,284,3.0,5.0,82,0.00,,,0.00,Wunderground v.1.15,2013-02-25 06:01:00,
2013-02-25 01:02:00,32.0,27.1,30.11,WSW,244,3.0,5.0,82,0.00,,,0.00,Wunderground v.1.15,2013-02-25 06:02:00,
2013-02-25 01:06:00,32.0,27.1,30.12,WSW,255,3.0,9.0,82,0.00,,,0.00,Wunderground v.1.15,2013-02-25 06:06:00,
2013-02-25 01:07:00,32.0,27.1,30.12,WSW,257,3.0,9.0,82,0.00,,,0.00,Wunderground v.1.15,2013-02-25 06:07:00,
2013-02-25 01:10:00,32.0,27.1,30.12,WSW,245,3.0,3.0,82,0.00,,,0.00,Wunderground v.1.15,2013-02-25 06:10:00,
2013-02-25 01:13:00,32.0,27.1,30.12,WNW,289,3.0,5.0,82,0.00,,,0.00,Wunderground v.1.15,2013-02-25 06:13:00,
2013-02-25 01:15:00,32.0,27.1,30.12,West,281,3.0,5.0,82,0.00,,,0.00,Wunderground v.1.15,2013-02-25 06:15:00,
2013-02-25 01:18:00,32.0,27.1,30.12,West,269,3.0,8.0,82,0.00,,,0.00,Wunderground v.1.15,2013-02-25 06:18:00,
2013-02-25 01:21:00,32.0,27.1,30.12,NW,308,3.0,5.0,82,0.00,,,0.00,Wunderground v.1.15,2013-02-25 06:21:00,
2013-02-25 01:22:00,32.0,27.1,30.12,West,276,3.0,5.0,82,0.00,,,0.00,Wunderground v.1.15,2013-02-25 06:22:00,
2013-02-25 01:23:00,32.0,27.1,30.12,WSW,239,3.0,5.0,82,0.00,,,0.00,Wunderground v.1.15,2013-02-25 06:23:00,
2013-02-25 01:25:00,32.0,27.1,30.12,WSW,255,3.0,5.0,82,0.00,,,0.00,Wunderground v.1.15,2013-02-25 06:25:00,
2013-02-25 01:26:00,32.0,27.1,30.12,SW,222,3.0,5.0,82,0.00,,,0.00,Wunderground v.1.15,2013-02-25 06:26:00,
2013-02-25 01:30:00,32.0,27.1,30.12,WNW,297,3.0,3.0,82,0.00,,,0.00,Wunderground v.1.15,2013-02-25 06:30:00,
2013-02-25 01:32:00,32.0,27.1,30.12,WSW,255,3.0,5.0,82,0.00,,,0.00,Wunderground v.1.15,2013-02-25 06:32:00,
2013-02-25 01:33:00,32.0,27.1,30.12,WNW,285,3.0,5.0,82,0.00,,,0.00,Wunderground v.1.15,2013-02-25 06:33:00,
2013-02-25 01:34:00,32.0,27.1,30.12,WSW,256,3.0,5.0,82,0.00,,,0.00,Wunderground v.1.15,2013-02-25 06:34:00,
2013-02-25 01:37:00,32.0,27.1,30.12,WNW,288,3.0,5.0,82,0.00,,,0.00,Wunderground v.1.15,2013-02-25 06:37:00,
2013-02-25 01:38:00,32.0,27.1,30.12,West,271,3.0,5.0,82,0.00,,,0.00,Wunderground v.1.15,2013-02-25 06:38:00,
2013-02-25 01:39:00,32.0,27.1,30.12,WSW,244,3.0,5.0,82,0.00,,,0.00,Wunderground v.1.15,2013-02-25 06:39:00,
2013-02-25 01:43:00,32.0,27.1,30.13,West,264,2.0,5.0,82,0.00,,,0.00,Wunderground v.1.15,2013-02-25 06:43:00,
2013-02-25 01:47:00,32.0,27.1,30.13,West,261,2.0,6.0,82,0.00,,,0.00,Wunderground v.1.15,2013-02-25 06:47:00,
2013-02-25 01:49:00,32.0,27.1,30.13,West,272,2.0,6.0,82,0.00,,,0.00,Wunderground v.1.15,2013-02-25 06:49:00,
2013-02-25 01:52:00,32.0,27.1,30.13,WNW,292,2.0,6.0,82,0.00,,,0.00,Wunderground v.1.15,2013-02-25 06:52:00,
2013-02-25 01:54:00,32.0,27.1,30.13,WSW,249,2.0,6.0,82,0.00,,,0.00,Wunderground v.1.15,2013-02-25 06:54:00,
2013-02-25 01:55:00,32.0,27.1,30.13,West,274,2.0,6.0,82,0.00,,,0.00,Wunderground v.1.15,2013-02-25 06:55:00,
2013-02-25 01:56:00,32.0,27.1,30.13,WSW,257,2.0,6.0,82,0.00,,,0.00,Wunderground v.1.15,2013-02-25 06:56:00,
2013-02-25 01:58:00,31.9,27.0,30.13,WSW,241,2.0,6.0,82,0.00,,,0.00,Wunderground v.1.15,2013-02-25 06:58:00,
2013-02-25 02:01:00,31.9,27.3,30.14,West,264,1.0,5.0,83,0.00,,,0.00,Wunderground v.1.15,2013-02-25 07:01:00,
2013-02-25 02:03:00,31.9,27.3,30.13,West,280,1.0,5.0,83,0.00,,,0.00,Wunderground v.1.15,2013-02-25 07:03:00,
2013-02-25 02:05:00,32.0,27.4,30.14,SW,231,2.0,5.0,83,0.00,,,0.00,Wunderground v.1.15,2013-02-25 07:05:00,
2013-02-25 02:06:00,32.0,27.4,30.14,WSW,247,2.0,5.0,83,0.00,,,0.00,Wunderground v.1.15,2013-02-25 07:06:00,
2013-02-25 02:09:00,32.0,27.1,30.14,SW,236,2.0,5.0,82,0.00,,,0.00,Wunderground v.1.15,2013-02-25 07:09:00,
2013-02-25 02:11:00,32.0,27.1,30.14,West,272,2.0,5.0,82,0.00,,,0.00,Wunderground v.1.15,2013-02-25 07:11:00,
2013-02-25 02:12:00,32.0,27.1,30.14,West,261,2.0,5.0,82,0.00,,,0.00,Wunderground v.1.15,2013-02-25 07:12:00,
2013-02-25 02:14:00,32.0,27.1,30.14,WNW,300,2.0,5.0,82,0.00,,,0.00,Wunderground v.1.15,2013-02-25 07:14:00,
2013-02-25 02:16:00,32.1,27.2,30.14,West,266,3.0,5.0,82,0.00,,,0.00,Wunderground v.1.15,2013-02-25 07:16:00,
2013-02-25 02:19:00,32.0,27.1,30.14,WNW,287,2.0,5.0,82,0.00,,,0.00,Wunderground v.1.15,2013-02-25 07:19:00,
2013-02-25 02:20:00,32.0,27.1,30.14,West,281,2.0,5.0,82,0.00,,,0.00,Wunderground v.1.15,2013-02-25 07:20:00,
2013-02-25 02:21:00,32.1,27.2,30.14,WSW,258,3.0,5.0,82,0.00,,,0.00,Wunderground v.1.15,2013-02-25 07:21:00,
2013-02-25 02:22:00,32.1,27.2,30.14,SW,229,3.0,5.0,82,0.00,,,0.00,Wunderground v.1.15,2013-02-25 07:22:00,
2013-02-25 02:24:00,32.1,27.2,30.14,West,264,3.0,5.0,82,0.00,,,0.00,Wunderground v.1.15,2013-02-25 07:24:00,
2013-02-25 02:26:00,32.1,27.2,30.14,WSW,243,3.0,6.0,82,0.00,,,0.00,Wunderground v.1.15,2013-02-25 07:26:00,
2013-02-25 02:30:00,32.0,27.1,30.14,West,260,3.0,5.0,82,0.00,,,0.00,Wunderground v.1.15,2013-02-25 07:30:00,
2013-02-25 02:31:00,32.0,27.1,30.14,WSW,244,3.0,5.0,82,0.00,,,0.00,Wunderground v.1.15,2013-02-25 07:31:00,
2013-02-25 02:33:00,32.0,27.1,30.14,WNW,287,3.0,5.0,82,0.00,,,0.00,Wunderground v.1.15,2013-02-25 07:33:00,
2013-02-25 02:35:00,31.9,27.0,30.14,WSW,253,3.0,5.0,82,0.00,,,0.00,Wunderground v.1.15,2013-02-25 07:35:00,
2013-02-25 02:37:00,31.9,27.0,30.14,WSW,251,2.0,5.0,82,0.00,,,0.00,Wunderground v.1.15,2013-02-25 07:37:00,
2013-02-25 02:39:00,31.9,27.0,30.14,WSW,248,2.0,6.0,82,0.00,,,0.00,Wunderground v.1.15,2013-02-25 07:39:00,
2013-02-25 02:41:00,31.9,27.0,30.14,WSW,245,3.0,6.0,82,0.00,,,0.00,Wunderground v.1.15,2013-02-25 07:41:00,
2013-02-25 02:42:00,31.9,27.0,30.14,WSW,256,3.0,6.0,82,0.00,,,0.00,Wunderground v.1.15,2013-02-25 07:42:00,
2013-02-25 02:44:00,31.8,26.9,30.14,West,262,3.0,6.0,82,0.00,,,0.00,Wunderground v.1.15,2013-02-25 07:44:00,
2013-02-25 02:45:00,31.8,26.9,30.14,WSW,243,3.0,6.0,82,0.00,,,0.00,Wunderground v.1.15,2013-02-25 07:45:00,
2013-02-25 02:49:00,31.8,26.9,30.14,WSW,245,3.0,6.0,82,0.00,,,0.00,Wunderground v.1.15,2013-02-25 07:49:00,
2013-02-25 02:51:00,31.8,26.9,30.14,West,267,3.0,5.0,82,0.00,,,0.00,Wunderground v.1.15,2013-02-25 07:51:00,
2013-02-25 02:53:00,31.7,26.8,30.14,West,270,2.0,5.0,82,0.00,,,0.00,Wunderground v.1.15,2013-02-25 07:53:00,
2013-02-25 02:56:00,31.7,26.8,30.14,West,272,2.0,5.0,82,0.00,,,0.00,Wunderground v.1.15,2013-02-25 07:56:00,
2013-02-25 02:57:00,31.7,26.8,30.14,WNW,284,2.0,5.0,82,0.00,,,0.00,Wunderground v.1.15,2013-02-25 07:57:00,
2013-02-25 02:58:00,31.7,26.8,30.14,WSW,255,2.0,5.0,82,0.00,,,0.00,Wunderground v.1.15,2013-02-25 07:58:00,
2013-02-25 03:02:00,31.7,26.8,30.14,West,271,2.0,5.0,82,0.00,,,0.00,Wunderground v.1.15,2013-02-25 08:02:00,
2013-02-25 03:04:00,31.7,26.8,30.14,WSW,256,2.0,5.0,82,0.00,,,0.00,Wunderground v.1.15,2013-02-25 08:04:00,
2013-02-25 03:07:00,31.7,26.8,30.14,West,269,2.0,5.0,82,0.00,,,0.00,Wunderground v.1.15,2013-02-25 08:07:00,
2013-02-25 03:08:00,31.7,26.8,30.14,West,259,2.0,5.0,82,0.00,,,0.00,Wunderground v.1.15,2013-02-25 08:08:00,
2013-02-25 03:09:00,31.7,26.8,30.14,WNW,283,2.0,5.0,82,0.00,,,0.00,Wunderground v.1.15,2013-02-25 08:09:00,
2013-02-25 03:14:00,31.7,26.8,30.14,WSW,249,2.0,5.0,82,0.00,,,0.00,Wunderground v.1.15,2013-02-25 08:14:00,
2013-02-25 03:15:00,31.7,26.8,30.14,West,264,2.0,5.0,82,0.00,,,0.00,Wunderground v.1.15,2013-02-25 08:15:00,
2013-02-25 03:19:00,31.7,26.8,30.14,WNW,293,2.0,5.0,82,0.00,,,0.00,Wunderground v.1.15,2013-02-25 08:19:00,
2013-02-25 03:21:00,31.7,26.8,30.14,West,281,2.0,5.0,82,0.00,,,0.00,Wunderground v.1.15,2013-02-25 08:21:00,
2013-02-25 03:22:00,31.7,26.8,30.14,West,274,2.0,5.0,82,0.00,,,0.00,Wunderground v.1.15,2013-02-25 08:22:00,
2013-02-25 03:25:00,31.7,26.8,30.14,West,271,3.0,5.0,82,0.00,,,0.00,Wunderground v.1.15,2013-02-25 08:25:00,
2013-02-25 03:28:00,31.7,26.8,30.15,West,265,3.0,5.0,82,0.00,,,0.00,Wunderground v.1.15,2013-02-25 08:28:00,
2013-02-25 03:29:00,31.7,26.8,30.15,SW,222,3.0,5.0,82,0.00,,,0.00,Wunderground v.1.15,2013-02-25 08:29:00,
2013-02-25 03:30:00,31.7,26.8,30.15,NW,311,3.0,5.0,82,0.00,,,0.00,Wunderground v.1.15,2013-02-25 08:30:00,
2013-02-25 03:34:00,31.7,26.8,30.15,WSW,253,2.0,7.0,82,0.00,,,0.00,Wunderground v.1.15,2013-02-25 08:34:00,
2013-02-25 03:36:00,31.7,26.8,30.15,WSW,249,2.0,7.0,82,0.00,,,0.00,Wunderground v.1.15,2013-02-25 08:36:00,
2013-02-25 03:40:00,31.7,27.1,30.15,West,270,2.0,5.0,83,0.00,,,0.00,Wunderground v.1.15,2013-02-25 08:40:00,
2013-02-25 03:41:00,31.7,27.1,30.15,WSW,249,2.0,5.0,83,0.00,,,0.00,Wunderground v.1.15,2013-02-25 08:41:00,
2013-02-25 03:42:00,31.7,27.1,30.15,West,261,3.0,5.0,83,0.00,,,0.00,Wunderground v.1.15,2013-02-25 08:42:00,
2013-02-25 03:45:00,31.7,27.1,30.15,West,281,3.0,6.0,83,0.00,,,0.00,Wunderground v.1.15,2013-02-25 08:45:00,
2013-02-25 03:47:00,31.7,27.1,30.15,WNW,292,3.0,6.0,83,0.00,,,0.00,Wunderground v.1.15,2013-02-25 08:47:00,
2013-02-25 03:48:00,31.7,27.1,30.15,West,273,3.0,6.0,83,0.00,,,0.00,Wunderground v.1.15,2013-02-25 08:48:00,
2013-02-25 03:49:00,31.7,27.1,30.15,West,264,3.0,6.0,83,0.00,,,0.00,Wunderground v.1.15,2013-02-25 08:49:00,
2013-02-25 03:50:00,31.8,27.2,30.15,SW,233,3.0,3.0,83,0.00,,,0.00,Wunderground v.1.15,2013-02-25 08:50:00,
2013-02-25 03:53:00,31.7,27.1,30.15,WSW,258,2.0,5.0,83,0.00,,,0.00,Wunderground v.1.15,2013-02-25 08:53:00,
2013-02-25 03:54:00,31.7,27.1,30.15,WNW,297,2.0,5.0,83,0.00,,,0.00,Wunderground v.1.15,2013-02-25 08:54:00,
2013-02-25 03:55:00,31.7,27.1,30.15,West,267,2.0,5.0,83,0.00,,,0.00,Wunderground v.1.15,2013-02-25 08:55:00,
2013-02-25 03:59:00,31.8,27.2,30.15,WSW,239,2.0,5.0,83,0.00,,,0.00,Wunderground v.1.15,2013-02-25 08:59:00,
2013-02-25 04:00:00,31.7,27.1,30.15,West,264,2.0,2.0,83,0.00,,,0.00,Wunderground v.1.15,2013-02-25 09:00:00,
2013-02-25 04:01:00,31.7,27.1,30.15,WNW,288,2.0,2.0,83,0.00,,,0.00,Wunderground v.1.15,2013-02-25 09:01:00,
2013-02-25 04:04:00,31.8,27.2,30.15,West,269,2.0,7.0,83,0.00,,,0.00,Wunderground v.1.15,2013-02-25 09:04:00,
2013-02-25 04:07:00,31.8,27.2,30.15,WSW,253,3.0,7.0,83,0.00,,,0.00,Wunderground v.1.15,2013-02-25 09:07:00,
2013-02-25 04:08:00,31.8,27.2,30.15,West,262,3.0,7.0,83,0.00,,,0.00,Wunderground v.1.15,2013-02-25 09:08:00,
2013-02-25 04:13:00,31.8,27.2,30.15,West,272,3.0,4.0,83,0.00,,,0.00,Wunderground v.1.15,2013-02-25 09:13:00,
2013-02-25 04:14:00,31.8,27.2,30.15,WSW,257,3.0,4.0,83,0.00,,,0.00,Wunderground v.1.15,2013-02-25 09:14:00,
2013-02-25 04:15:00,31.8,27.2,30.15,West,264,3.0,4.0,83,0.00,,,0.00,Wunderground v.1.15,2013-02-25 09:15:00,
2013-02-25 04:17:00,31.8,27.5,30.16,West,265,2.0,4.0,84,0.00,,,0.00,Wunderground v.1.15,2013-02-25 09:17:00,
2013-02-25 04:19:00,31.8,27.5,30.16,WSW,246,2.0,4.0,84,0.00,,,0.00,Wunderground v.1.15,2013-02-25 09:19:00,
2013-02-25 04:22:00,31.8,27.5,30.16,WNW,290,2.0,2.0,84,0.00,,,0.00,Wunderground v.1.15,2013-02-25 09:22:00,
2013-02-25 04:23:00,31.8,27.5,30.16,West,271,1.0,2.0,84,0.00,,,0.00,Wunderground v.1.15,2013-02-25 09:23:00,
2013-02-25 04:24:00,31.8,27.5,30.15,WSW,248,1.0,5.0,84,0.00,,,0.00,Wunderground v.1.15,2013-02-25 09:24:00,
2013-02-25 04:26:00,31.8,27.5,30.16,West,259,2.0,5.0,84,0.00,,,0.00,Wunderground v.1.15,2013-02-25 09:26:00,
2013-02-25 04:30:00,31.8,27.5,30.16,West,266,2.0,2.0,84,0.00,,,0.00,Wunderground v.1.15,2013-02-25 09:30:00,
2013-02-25 04:32:00,31.8,27.5,30.16,West,260,2.0,8.0,84,0.00,,,0.00,Wunderground v.1.15,2013-02-25 09:32:00,
2013-02-25 04:33:00,31.8,27.5,30.16,West,269,2.0,8.0,84,0.00,,,0.00,Wunderground v.1.15,2013-02-25 09:33:00,
2013-02-25 04:34:00,31.8,27.5,30.16,WSW,253,2.0,8.0,84,0.00,,,0.00,Wunderground v.1.15,2013-02-25 09:34:00,
2013-02-25 04:39:00,31.8,27.5,30.16,WSW,243,1.0,8.0,84,0.00,,,0.00,Wunderground v.1.15,2013-02-25 09:39:00,
2013-02-25 04:40:00,31.8,27.5,30.16,WNW,287,1.0,8.0,84,0.00,,,0.00,Wunderground v.1.15,2013-02-25 09:40:00,
2013-02-25 04:41:00,31.8,27.5,30.16,SSW,196,2.0,8.0,84,0.00,,,0.00,Wunderground v.1.15,2013-02-25 09:41:00,
2013-02-25 04:46:00,31.9,27.6,30.16,West,260,2.0,8.0,84,0.00,,,0.00,Wunderground v.1.15,2013-02-25 09:46:00,
2013-02-25 04:47:00,31.9,27.6,30.16,West,274,2.0,8.0,84,0.00,,,0.00,Wunderground v.1.15,2013-02-25 09:47:00,
2013-02-25 04:48:00,31.9,27.6,30.16,West,270,2.0,8.0,84,0.00,,,0.00,Wunderground v.1.15,2013-02-25 09:48:00,
2013-02-25 04:52:00,31.9,27.6,30.16,West,277,2.0,8.0,84,0.00,,,0.00,Wunderground v.1.15,2013-02-25 09:52:00,
2013-02-25 04:53:00,31.9,27.6,30.16,WNW,287,2.0,8.0,84,0.00,,,0.00,Wunderground v.1.15,2013-02-25 09:53:00,
2013-02-25 04:54:00,31.9,27.6,30.16,WNW,286,2.0,8.0,84,0.00,,,0.00,Wunderground v.1.15,2013-02-25 09:54:00,
2013-02-25 04:57:00,31.8,27.5,30.16,West,278,1.0,8.0,84,0.00,,,0.00,Wunderground v.1.15,2013-02-25 09:57:00,
2013-02-25 04:59:00,31.8,27.5,30.16,West,264,1.0,8.0,84,0.00,,,0.00,Wunderground v.1.15,2013-02-25 09:59:00,
2013-02-25 05:01:00,31.8,27.5,30.16,West,269,1.0,8.0,84,0.00,,,0.00,Wunderground v.1.15,2013-02-25 10:01:00,
2013-02-25 05:02:00,31.8,27.5,30.17,West,262,1.0,8.0,84,0.00,,,0.00,Wunderground v.1.15,2013-02-25 10:02:00,
2013-02-25 05:03:00,31.8,27.5,30.17,West,269,1.0,8.0,84,0.00,,,0.00,Wunderground v.1.15,2013-02-25 10:03:00,
2013-02-25 05:05:00,31.9,27.6,30.17,WNW,283,1.0,8.0,84,0.00,,,0.00,Wunderground v.1.15,2013-02-25 10:05:00,
2013-02-25 05:06:00,31.8,27.5,30.17,WNW,283,1.0,8.0,84,0.00,,,0.00,Wunderground v.1.15,2013-02-25 10:06:00,
2013-02-25 05:07:00,31.9,27.6,30.17,WSW,244,1.0,8.0,84,0.00,,,0.00,Wunderground v.1.15,2013-02-25 10:07:00,
2013-02-25 05:11:00,31.8,27.5,30.17,West,263,2.0,8.0,84,0.00,,,0.00,Wunderground v.1.15,2013-02-25 10:11:00,
2013-02-25 05:12:00,31.8,27.5,30.17,West,264,2.0,8.0,84,0.00,,,0.00,Wunderground v.1.15,2013-02-25 10:12:00,
2013-02-25 05:13:00,31.8,27.5,30.17,West,267,2.0,8.0,84,0.00,,,0.00,Wunderground v.1.15,2013-02-25 10:13:00,
2013-02-25 05:17:00,31.8,27.5,30.16,WNW,288,1.0,8.0,84,0.00,,,0.00,Wunderground v.1.15,2013-02-25 10:17:00,
2013-02-25 05:18:00,31.8,27.5,30.17,WNW,284,2.0,8.0,84,0.00,,,0.00,Wunderground v.1.15,2013-02-25 10:18:00,
2013-02-25 05:19:00,31.8,27.5,30.17,WSW,248,1.0,8.0,84,0.00,,,0.00,Wunderground v.1.15,2013-02-25 10:19:00,
2013-02-25 05:23:00,31.8,27.5,30.17,West,272,1.0,8.0,84,0.00,,,0.00,Wunderground v.1.15,2013-02-25 10:23:00,
2013-02-25 05:25:00,31.8,27.5,30.17,SW,226,2.0,8.0,84,0.00,,,0.00,Wunderground v.1.15,2013-02-25 10:25:00,
2013-02-25 05:28:00,31.8,27.5,30.17,West,277,2.0,8.0,84,0.00,,,0.00,Wunderground v.1.15,2013-02-25 10:28:00,
2013-02-25 05:29:00,31.8,27.5,30.17,West,278,2.0,8.0,84,0.00,,,0.00,Wunderground v.1.15,2013-02-25 10:29:00,
2013-02-25 05:31:00,31.8,27.5,30.17,WSW,253,2.0,8.0,84,0.00,,,0.00,Wunderground v.1.15,2013-02-25 10:31:00,
2013-02-25 05:32:00,31.8,27.2,30.17,West,271,2.0,8.0,83,0.00,,,0.00,Wunderground v.1.15,2013-02-25 10:32:00,
2013-02-25 05:35:00,31.8,27.5,30.17,WSW,243,2.0,8.0,84,0.00,,,0.00,Wunderground v.1.15,2013-02-25 10:35:00,
2013-02-25 05:37:00,31.8,27.5,30.17,WSW,256,2.0,8.0,84,0.00,,,0.00,Wunderground v.1.15,2013-02-25 10:37:00,
2013-02-25 05:38:00,31.8,27.5,30.17,West,270,2.0,8.0,84,0.00,,,0.00,Wunderground v.1.15,2013-02-25 10:38:00,
2013-02-25 05:42:00,31.8,27.5,30.17,WSW,248,1.0,8.0,84,0.00,,,0.00,Wunderground v.1.15,2013-02-25 10:42:00,
2013-02-25 05:43:00,31.8,27.5,30.17,WSW,256,1.0,8.0,84,0.00,,,0.00,Wunderground v.1.15,2013-02-25 10:43:00,
2013-02-25 05:44:00,31.7,27.4,30.17,WSW,255,1.0,8.0,84,0.00,,,0.00,Wunderground v.1.15,2013-02-25 10:44:00,
2013-02-25 05:48:00,31.7,27.4,30.18,West,281,1.0,8.0,84,0.00,,,0.00,Wunderground v.1.15,2013-02-25 10:48:00,
2013-02-25 05:49:00,31.7,27.4,30.18,SW,214,1.0,8.0,84,0.00,,,0.00,Wunderground v.1.15,2013-02-25 10:49:00,
2013-02-25 05:51:00,31.7,27.4,30.18,WSW,255,1.0,8.0,84,0.00,,,0.00,Wunderground v.1.15,2013-02-25 10:51:00,
2013-02-25 05:55:00,31.7,27.4,30.17,WSW,248,1.0,8.0,84,0.00,,,0.00,Wunderground v.1.15,2013-02-25 10:55:00,
2013-02-25 05:57:00,31.7,27.4,30.17,West,259,1.0,8.0,84,0.00,,,0.00,Wunderground v.1.15,2013-02-25 10:57:00,
2013-02-25 05:58:00,31.7,27.4,30.17,West,264,1.0,8.0,84,0.00,,,0.00,Wunderground v.1.15,2013-02-25 10:58:00,
2013-02-25 06:00:00,31.7,27.4,30.18,West,272,1.0,8.0,84,0.00,,,0.00,Wunderground v.1.15,2013-02-25 11:00:00,
2013-02-25 06:03:00,31.6,27.3,30.18,West,273,1.0,8.0,84,0.00,,,0.00,Wunderground v.1.15,2013-02-25 11:03:00,
2013-02-25 06:04:00,31.7,27.4,30.18,West,275,1.0,8.0,84,0.00,,,0.00,Wunderground v.1.15,2013-02-25 11:04:00,
2013-02-25 06:05:00,31.7,27.4,30.18,WSW,250,1.0,8.0,84,0.00,,,0.00,Wunderground v.1.15,2013-02-25 11:05:00,
2013-02-25 06:06:00,31.6,27.3,30.18,West,270,1.0,8.0,84,0.00,,,0.00,Wunderground v.1.15,2013-02-25 11:06:00,
2013-02-25 06:08:00,31.6,27.3,30.18,West,266,1.0,8.0,84,0.00,,,0.00,Wunderground v.1.15,2013-02-25 11:08:00,
2013-02-25 06:10:00,31.6,27.3,30.18,West,260,1.0,8.0,84,0.00,,,0.00,Wunderground v.1.15,2013-02-25 11:10:00,
2013-02-25 06:13:00,31.6,27.3,30.18,West,265,1.0,8.0,84,0.00,,,0.00,Wunderground v.1.15,2013-02-25 11:13:00,
2013-02-25 06:14:00,31.7,27.4,30.18,West,262,1.0,8.0,84,0.00,,,0.00,Wunderground v.1.15,2013-02-25 11:14:00,
2013-02-25 06:17:00,31.6,27.3,30.18,WSW,240,1.0,8.0,84,0.00,,,0.00,Wunderground v.1.15,2013-02-25 11:17:00,
2013-02-25 06:18:00,31.7,27.4,30.18,WSW,238,1.0,8.0,84,0.00,,,0.00,Wunderground v.1.15,2013-02-25 11:18:00,
2013-02-25 06:20:00,31.7,27.4,30.18,WSW,256,1.0,8.0,84,0.00,,,0.00,Wunderground v.1.15,2013-02-25 11:20:00,
2013-02-25 06:23:00,31.6,27.3,30.18,WSW,246,1.0,8.0,84,0.00,,,0.00,Wunderground v.1.15,2013-02-25 11:23:00,
2013-02-25 06:24:00,31.6,27.3,30.18,West,263,1.0,8.0,84,0.00,,,0.00,Wunderground v.1.15,2013-02-25 11:24:00,
2013-02-25 06:25:00,31.6,27.3,30.18,West,271,1.0,8.0,84,0.00,,,0.00,Wunderground v.1.15,2013-02-25 11:25:00,
2013-02-25 06:29:00,31.7,27.4,30.18,WSW,255,1.0,8.0,84,0.00,,,0.00,Wunderground v.1.15,2013-02-25 11:29:00,
2013-02-25 06:30:00,31.7,27.4,30.18,WSW,238,1.0,1.0,84,0.00,,,0.00,Wunderground v.1.15,2013-02-25 11:30:00,
2013-02-25 06:33:00,31.7,27.4,30.18,West,281,1.0,8.0,84,0.00,,,0.00,Wunderground v.1.15,2013-02-25 11:33:00,
2013-02-25 06:34:00,31.6,27.3,30.18,West,281,1.0,8.0,84,0.00,,,0.00,Wunderground v.1.15,2013-02-25 11:34:00,
2013-02-25 06:37:00,31.6,27.3,30.18,WSW,249,0.0,8.0,84,0.00,,,0.00,Wunderground v.1.15,2013-02-25 11:37:00,
2013-02-25 06:38:00,31.6,27.3,30.18,WSW,249,0.0,8.0,84,0.00,,,0.00,Wunderground v.1.15,2013-02-25 11:38:00,
2013-02-25 06:39:00,31.6,27.3,30.18,WSW,249,0.0,8.0,84,0.00,,,0.00,Wunderground v.1.15,2013-02-25 11:39:00,
2013-02-25 06:42:00,31.6,27.3,30.18,WSW,246,0.0,8.0,84,0.00,,,0.00,Wunderground v.1.15,2013-02-25 11:42:00,
2013-02-25 06:43:00,31.6,27.3,30.18,West,271,0.0,8.0,84,0.00,,,0.00,Wunderground v.1.15,2013-02-25 11:43:00,
2013-02-25 06:44:00,31.6,27.3,30.18,WSW,248,0.0,8.0,84,0.00,,,0.00,Wunderground v.1.15,2013-02-25 11:44:00,
2013-02-25 06:45:00,31.6,27.3,30.18,West,267,0.0,8.0,84,0.00,,,0.00,Wunderground v.1.15,2013-02-25 11:45:00,
2013-02-25 06:48:00,31.5,27.2,30.18,West,260,1.0,8.0,84,0.00,,,0.00,Wunderground v.1.15,2013-02-25 11:48:00,
2013-02-25 06:50:00,31.5,27.2,30.18,West,259,1.0,8.0,84,0.00,,,0.00,Wunderground v.1.15,2013-02-25 11:50:00,
2013-02-25 06:52:00,31.6,27.3,30.19,WSW,248,1.0,8.0,84,0.00,,,0.00,Wunderground v.1.15,2013-02-25 11:52:00,
2013-02-25 06:54:00,31.5,27.2,30.18,WSW,245,1.0,8.0,84,0.00,,,0.00,Wunderground v.1.15,2013-02-25 11:54:00,
2013-02-25 06:56:00,31.6,27.3,30.19,West,264,1.0,8.0,84,0.00,,,0.00,Wunderground v.1.15,2013-02-25 11:56:00,
2013-02-25 06:58:00,31.6,27.3,30.19,WSW,256,1.0,8.0,84,0.00,,,0.00,Wunderground v.1.15,2013-02-25 11:58:00,
2013-02-25 07:00:00,31.6,27.3,30.19,WSW,248,1.0,8.0,84,0.00,,,0.00,Wunderground v.1.15,2013-02-25 12:00:00,
2013-02-25 07:01:00,31.6,27.3,30.19,WSW,240,1.0,8.0,84,0.00,,,0.00,Wunderground v.1.15,2013-02-25 12:01:00,
2013-02-25 07:03:00,31.6,27.3,30.19,West,269,1.0,8.0,84,0.00,,,0.00,Wunderground v.1.15,2013-02-25 12:03:00,
2013-02-25 07:04:00,31.6,27.3,30.18,WSW,253,1.0,8.0,84,0.00,,,0.00,Wunderground v.1.15,2013-02-25 12:04:00,
2013-02-25 07:07:00,31.6,27.3,30.19,WSW,256,1.0,8.0,84,0.00,,,0.00,Wunderground v.1.15,2013-02-25 12:07:00,
2013-02-25 07:09:00,31.6,27.3,30.18,West,269,1.0,8.0,84,0.00,,,0.00,Wunderground v.1.15,2013-02-25 12:09:00,
2013-02-25 07:10:00,31.6,27.3,30.18,West,262,1.0,8.0,84,0.00,,,0.00,Wunderground v.1.15,2013-02-25 12:10:00,
2013-02-25 07:11:00,31.6,27.3,30.19,WSW,257,1.0,8.0,84,0.00,,,0.00,Wunderground v.1.15,2013-02-25 12:11:00,
2013-02-25 07:14:00,31.6,27.3,30.19,West,266,1.0,8.0,84,0.00,,,0.00,Wunderground v.1.15,2013-02-25 12:14:00,
2013-02-25 07:16:00,31.6,27.3,30.19,West,263,1.0,8.0,84,0.00,,,0.00,Wunderground v.1.15,2013-02-25 12:16:00,
2013-02-25 07:17:00,31.6,27.3,30.19,WNW,283,1.0,8.0,84,0.00,,,0.00,Wunderground v.1.15,2013-02-25 12:17:00,
2013-02-25 07:19:00,31.6,27.3,30.19,WSW,255,1.0,8.0,84,0.00,,,0.00,Wunderground v.1.15,2013-02-25 12:19:00,
2013-02-25 07:21:00,31.6,27.3,30.19,West,263,1.0,8.0,84,0.00,,,0.00,Wunderground v.1.15,2013-02-25 12:21:00,
2013-02-25 07:24:00,31.7,27.4,30.19,WSW,256,1.0,8.0,84,0.00,,,0.00,Wunderground v.1.15,2013-02-25 12:24:00,
2013-02-25 07:27:00,31.7,27.4,30.19,West,281,1.0,8.0,84,0.00,,,0.00,Wunderground v.1.15,2013-02-25 12:27:00,
2013-02-25 07:28:00,31.8,27.5,30.19,West,260,1.0,8.0,84,0.00,,,0.00,Wunderground v.1.15,2013-02-25 12:28:00,
2013-02-25 07:30:00,31.8,27.5,30.19,West,263,1.0,1.0,84,0.00,,,0.00,Wunderground v.1.15,2013-02-25 12:30:00,
2013-02-25 07:32:00,31.8,27.5,30.19,WSW,253,1.0,8.0,84,0.00,,,0.00,Wunderground v.1.15,2013-02-25 12:32:00,
2013-02-25 07:33:00,31.8,27.5,30.19,WSW,243,1.0,8.0,84,0.00,,,0.00,Wunderground v.1.15,2013-02-25 12:33:00,
2013-02-25 07:34:00,31.9,27.6,30.20,West,269,1.0,8.0,84,0.00,,,0.00,Wunderground v.1.15,2013-02-25 12:34:00,
2013-02-25 07:38:00,32.0,27.4,30.20,West,259,1.0,8.0,83,0.00,,,0.00,Wunderground v.1.15,2013-02-25 12:38:00,
2013-02-25 07:39:00,32.0,27.4,30.20,West,267,1.0,8.0,83,0.00,,,0.00,Wunderground v.1.15,2013-02-25 12:39:00,
2013-02-25 07:40:00,32.0,27.4,30.19,WSW,249,1.0,8.0,83,0.00,,,0.00,Wunderground v.1.15,2013-02-25 12:40:00,
2013-02-25 07:42:00,32.1,27.5,30.19,WSW,255,1.0,8.0,83,0.00,,,0.00,Wunderground v.1.15,2013-02-25 12:42:00,
2013-02-25 07:43:00,32.1,27.5,30.19,SW,236,2.0,8.0,83,0.00,,,0.00,Wunderground v.1.15,2013-02-25 12:43:00,
2013-02-25 07:46:00,32.3,27.7,30.19,West,280,1.0,8.0,83,0.00,,,0.00,Wunderground v.1.15,2013-02-25 12:46:00,
2013-02-25 07:47:00,32.3,27.7,30.19,West,260,1.0,8.0,83,0.00,,,0.00,Wunderground v.1.15,2013-02-25 12:47:00,
2013-02-25 07:49:00,32.3,27.7,30.19,WSW,255,1.0,8.0,83,0.00,,,0.00,Wunderground v.1.15,2013-02-25 12:49:00,
2013-02-25 07:52:00,32.4,27.8,30.19,West,264,1.0,8.0,83,0.00,,,0.00,Wunderground v.1.15,2013-02-25 12:52:00,
2013-02-25 07:54:00,32.5,27.9,30.20,WSW,249,1.0,8.0,83,0.00,,,0.00,Wunderground v.1.15,2013-02-25 12:54:00,
2013-02-25 07:55:00,32.5,27.9,30.19,West,261,1.0,8.0,83,0.00,,,0.00,Wunderground v.1.15,2013-02-25 12:55:00,
2013-02-25 07:57:00,32.5,27.6,30.20,WNW,286,1.0,8.0,82,0.00,,,0.00,Wunderground v.1.15,2013-02-25 12:57:00,
2013-02-25 08:00:00,32.5,27.6,30.20,West,275,1.0,8.0,82,0.00,,,0.00,Wunderground v.1.15,2013-02-25 13:00:00,
2013-02-25 08:01:00,32.6,27.7,30.20,West,266,1.0,8.0,82,0.00,,,0.00,Wunderground v.1.15,2013-02-25 13:01:00,
2013-02-25 08:02:00,32.6,27.7,30.20,West,271,1.0,8.0,82,0.00,,,0.00,Wunderground v.1.15,2013-02-25 13:02:00,
2013-02-25 08:06:00,32.6,27.7,30.20,West,267,1.0,8.0,82,0.00,,,0.00,Wunderground v.1.15,2013-02-25 13:06:00,
2013-02-25 08:07:00,32.7,27.8,30.20,WNW,284,1.0,8.0,82,0.00,,,0.00,Wunderground v.1.15,2013-02-25 13:07:00,
2013-02-25 08:08:00,32.7,27.8,30.20,West,273,1.0,8.0,82,0.00,,,0.00,Wunderground v.1.15,2013-02-25 13:08:00,
2013-02-25 08:11:00,32.8,27.9,30.20,West,259,1.0,8.0,82,0.00,,,0.00,Wunderground v.1.15,2013-02-25 13:11:00,
2013-02-25 08:12:00,32.8,27.9,30.20,WNW,285,1.0,8.0,82,0.00,,,0.00,Wunderground v.1.15,2013-02-25 13:12:00,
2013-02-25 08:16:00,32.9,28.0,30.20,West,262,1.0,8.0,82,0.00,,,0.00,Wunderground v.1.15,2013-02-25 13:16:00,
2013-02-25 08:17:00,32.9,28.0,30.20,WSW,256,1.0,8.0,82,0.00,,,0.00,Wunderground v.1.15,2013-02-25 13:17:00,
2013-02-25 08:18:00,32.9,28.0,30.20,West,273,1.0,8.0,82,0.00,,,0.00,Wunderground v.1.15,2013-02-25 13:18:00,
2013-02-25 08:21:00,33.0,28.1,30.21,West,261,1.0,8.0,82,0.00,,,0.00,Wunderground v.1.15,2013-02-25 13:21:00,
2013-02-25 08:24:00,33.1,27.9,30.21,WSW,250,1.0,8.0,81,0.00,,,0.00,Wunderground v.1.15,2013-02-25 13:24:00,
2013-02-25 08:25:00,33.1,27.9,30.21,West,274,1.0,8.0,81,0.00,,,0.00,Wunderground v.1.15,2013-02-25 13:25:00,
2013-02-25 08:26:00,33.0,27.8,30.21,West,263,1.0,8.0,81,0.00,,,0.00,Wunderground v.1.15,2013-02-25 13:26:00,
2013-02-25 08:30:00,33.1,27.9,30.21,West,269,1.0,8.0,81,0.00,,,0.00,Wunderground v.1.15,2013-02-25 13:30:00,
2013-02-25 08:31:00,33.1,27.9,30.21,West,275,1.0,8.0,81,0.00,,,0.00,Wunderground v.1.15,2013-02-25 13:31:00,
2013-02-25 08:33:00,33.2,28.0,30.21,West,276,1.0,8.0,81,0.00,,,0.00,Wunderground v.1.15,2013-02-25 13:33:00,
2013-02-25 08:36:00,33.2,28.0,30.21,WSW,256,1.0,8.0,81,0.00,,,0.00,Wunderground v.1.15,2013-02-25 13:36:00,
2013-02-25 08:37:00,33.3,28.1,30.21,WSW,256,1.0,8.0,81,0.00,,,0.00,Wunderground v.1.15,2013-02-25 13:37:00,
2013-02-25 08:39:00,33.3,28.1,30.21,SW,233,1.0,8.0,81,0.00,,,0.00,Wunderground v.1.15,2013-02-25 13:39:00,
2013-02-25 08:41:00,33.3,28.1,30.22,WSW,245,1.0,8.0,81,0.00,,,0.00,Wunderground v.1.15,2013-02-25 13:41:00,
2013-02-25 08:44:00,33.2,28.0,30.22,SW,232,1.0,8.0,81,0.00,,,0.00,Wunderground v.1.15,2013-02-25 13:44:00,
2013-02-25 08:49:00,33.1,27.9,30.22,West,273,2.0,8.0,81,0.00,,,0.00,Wunderground v.1.15,2013-02-25 13:49:00,
2013-02-25 08:52:00,33.1,27.9,30.22,WSW,239,2.0,8.0,81,0.00,,,0.00,Wunderground v.1.15,2013-02-25 13:52:00,
2013-02-25 08:55:00,33.1,27.9,30.22,WSW,239,2.0,8.0,81,0.00,,,0.00,Wunderground v.1.15,2013-02-25 13:55:00,
2013-02-25 08:56:00,33.1,27.9,30.22,WSW,245,2.0,8.0,81,0.00,,,0.00,Wunderground v.1.15,2013-02-25 13:56:00,
2013-02-25 08:58:00,33.1,27.9,30.23,WNW,301,1.0,8.0,81,0.00,,,0.00,Wunderground v.1.15,2013-02-25 13:58:00,
2013-02-25 08:59:00,33.1,27.9,30.22,West,274,1.0,8.0,81,0.00,,,0.00,Wunderground v.1.15,2013-02-25 13:59:00,
2013-02-25 09:00:00,33.1,27.9,30.23,West,266,1.0,1.0,81,0.00,,,0.00,Wunderground v.1.15,2013-02-25 14:00:00,
2013-02-25 09:03:00,33.0,27.8,30.23,West,267,1.0,8.0,81,0.00,,,0.00,Wunderground v.1.15,2013-02-25 14:03:00,
2013-02-25 09:04:00,33.1,27.9,30.23,West,269,1.0,8.0,81,0.00,,,0.00,Wunderground v.1.15,2013-02-25 14:04:00,
2013-02-25 09:05:00,33.1,27.9,30.23,WSW,246,1.0,8.0,81,0.00,,,0.00,Wunderground v.1.15,2013-02-25 14:05:00,
2013-02-25 09:08:00,33.1,27.9,30.23,West,263,1.0,8.0,81,0.00,,,0.00,Wunderground v.1.15,2013-02-25 14:08:00,
2013-02-25 09:12:00,33.1,27.9,30.23,West,269,1.0,8.0,81,0.00,,,0.00,Wunderground v.1.15,2013-02-25 14:12:00,
2013-02-25 09:13:00,33.1,27.9,30.23,West,263,1.0,8.0,81,0.00,,,0.00,Wunderground v.1.15,2013-02-25 14:13:00,
2013-02-25 09:14:00,33.1,27.9,30.23,West,264,1.0,8.0,81,0.00,,,0.00,Wunderground v.1.15,2013-02-25 14:14:00,
2013-02-25 09:18:00,33.1,28.2,30.23,WNW,291,0.0,8.0,82,0.00,,,0.00,Wunderground v.1.15,2013-02-25 14:18:00,
2013-02-25 09:21:00,33.1,27.9,30.23,WSW,252,1.0,8.0,81,0.00,,,0.00,Wunderground v.1.15,2013-02-25 14:21:00,
2013-02-25 09:25:00,33.0,28.1,30.23,WSW,248,1.0,8.0,82,0.00,,,0.00,Wunderground v.1.15,2013-02-25 14:25:00,
2013-02-25 09:26:00,33.0,28.1,30.23,WSW,248,1.0,8.0,82,0.00,,,0.00,Wunderground v.1.15,2013-02-25 14:26:00,
2013-02-25 09:27:00,33.0,28.1,30.23,WSW,255,1.0,8.0,82,0.00,,,0.00,Wunderground v.1.15,2013-02-25 14:27:00,
2013-02-25 09:30:00,33.0,27.8,30.23,SW,215,1.0,1.0,81,0.00,,,0.00,Wunderground v.1.15,2013-02-25 14:30:00,
2013-02-25 09:31:00,33.0,27.8,30.23,SW,215,1.0,8.0,81,0.00,,,0.00,Wunderground v.1.15,2013-02-25 14:31:00,
2013-02-25 09:34:00,33.0,27.8,30.23,WSW,249,2.0,8.0,81,0.00,,,0.00,Wunderground v.1.15,2013-02-25 14:34:00,
2013-02-25 09:36:00,33.1,27.9,30.23,SW,233,1.0,8.0,81,0.00,,,0.00,Wunderground v.1.15,2013-02-25 14:36:00,
2013-02-25 09:39:00,33.1,27.9,30.23,West,272,2.0,8.0,81,0.00,,,0.00,Wunderground v.1.15,2013-02-25 14:39:00,
2013-02-25 09:40:00,33.1,27.9,30.23,WSW,245,1.0,8.0,81,0.00,,,0.00,Wunderground v.1.15,2013-02-25 14:40:00,
2013-02-25 09:41:00,33.2,28.0,30.23,WSW,243,2.0,8.0,81,0.00,,,0.00,Wunderground v.1.15,2013-02-25 14:41:00,
2013-02-25 09:43:00,33.2,28.0,30.23,SW,219,1.0,8.0,81,0.00,,,0.00,Wunderground v.1.15,2013-02-25 14:43:00,
2013-02-25 09:48:00,33.3,28.1,30.23,West,267,1.0,8.0,81,0.00,,,0.00,Wunderground v.1.15,2013-02-25 14:48:00,
2013-02-25 09:49:00,33.3,27.8,30.23,West,264,1.0,8.0,80,0.00,,,0.00,Wunderground v.1.15,2013-02-25 14:49:00,
2013-02-25 09:53:00,33.4,27.9,30.23,WSW,238,1.0,8.0,80,0.00,,,0.00,Wunderground v.1.15,2013-02-25 14:53:00,
2013-02-25 09:54:00,33.4,27.9,30.23,WSW,239,2.0,8.0,80,0.00,,,0.00,Wunderground v.1.15,2013-02-25 14:54:00,
2013-02-25 09:55:00,33.5,28.0,30.23,West,269,2.0,8.0,80,0.00,,,0.00,Wunderground v.1.15,2013-02-25 14:55:00,
2013-02-25 09:58:00,33.5,28.0,30.23,WNW,287,2.0,8.0,80,0.00,,,0.00,Wunderground v.1.15,2013-02-25 14:58:00,
2013-02-25 10:00:00,33.5,28.0,30.23,SSW,193,2.0,2.0,80,0.00,,,0.00,Wunderground v.1.15,2013-02-25 15:00:00,
2013-02-25 10:03:00,33.6,28.1,30.23,SSW,212,2.0,8.0,80,0.00,,,0.00,Wunderground v.1.15,2013-02-25 15:03:00,
2013-02-25 10:04:00,33.7,28.2,30.23,WSW,240,2.0,8.0,80,0.00,,,0.00,Wunderground v.1.15,2013-02-25 15:04:00,
2013-02-25 10:05:00,33.7,28.2,30.23,WSW,249,2.0,8.0,80,0.00,,,0.00,Wunderground v.1.15,2013-02-25 15:05:00,
2013-02-25 10:08:00,33.8,28.3,30.23,WSW,243,1.0,8.0,80,0.00,,,0.00,Wunderground v.1.15,2013-02-25 15:08:00,
2013-02-25 10:10:00,33.9,28.4,30.23,West,266,1.0,8.0,80,0.00,,,0.00,Wunderground v.1.15,2013-02-25 15:10:00,
2013-02-25 10:13:00,33.9,28.1,30.24,West,280,1.0,8.0,79,0.00,,,0.00,Wunderground v.1.15,2013-02-25 15:13:00,
2013-02-25 10:15:00,34.0,28.2,30.24,West,259,1.0,8.0,79,0.00,,,0.00,Wunderground v.1.15,2013-02-25 15:15:00,
2013-02-25 10:16:00,34.0,28.2,30.24,West,260,2.0,8.0,79,0.00,,,0.00,Wunderground v.1.15,2013-02-25 15:16:00,
2013-02-25 10:18:00,34.0,28.2,30.24,WSW,257,2.0,8.0,79,0.00,,,0.00,Wunderground v.1.15,2013-02-25 15:18:00,
2013-02-25 10:21:00,34.0,28.2,30.24,WSW,240,2.0,8.0,79,0.00,,,0.00,Wunderground v.1.15,2013-02-25 15:21:00,
2013-02-25 10:22:00,34.1,28.3,30.24,WNW,285,2.0,8.0,79,0.00,,,0.00,Wunderground v.1.15,2013-02-25 15:22:00,
2013-02-25 10:24:00,34.0,28.2,30.24,WSW,252,2.0,8.0,79,0.00,,,0.00,Wunderground v.1.15,2013-02-25 15:24:00,
2013-02-25 10:25:00,34.1,28.3,30.24,WNW,288,2.0,8.0,79,0.00,,,0.00,Wunderground v.1.15,2013-02-25 15:25:00,
2013-02-25 10:28:00,34.1,28.3,30.24,West,264,2.0,8.0,79,0.00,,,0.00,Wunderground v.1.15,2013-02-25 15:28:00,
2013-02-25 10:30:00,34.1,28.3,30.24,SW,233,2.0,8.0,79,0.00,,,0.00,Wunderground v.1.15,2013-02-25 15:30:00,
2013-02-25 10:33:00,34.1,28.3,30.24,SW,235,2.0,8.0,79,0.00,,,0.00,Wunderground v.1.15,2013-02-25 15:33:00,
2013-02-25 10:35:00,34.2,28.4,30.24,West,262,2.0,8.0,79,0.00,,,0.00,Wunderground v.1.15,2013-02-25 15:35:00,
2013-02-25 10:36:00,34.2,28.1,30.24,SW,222,2.0,8.0,78,0.00,,,0.00,Wunderground v.1.15,2013-02-25 15:36:00,
2013-02-25 10:38:00,34.2,28.4,30.24,WSW,251,2.0,8.0,79,0.00,,,0.00,Wunderground v.1.15,2013-02-25 15:38:00,
2013-02-25 10:41:00,34.3,28.5,30.24,West,270,2.0,3.0,79,0.00,,,0.00,Wunderground v.1.15,2013-02-25 15:41:00,
2013-02-25 10:42:00,34.3,28.5,30.24,WSW,246,2.0,8.0,79,0.00,,,0.00,Wunderground v.1.15,2013-02-25 15:42:00,
2013-02-25 10:43:00,34.3,28.5,30.24,SW,233,2.0,8.0,79,0.00,,,0.00,Wunderground v.1.15,2013-02-25 15:43:00,
2013-02-25 10:45:00,34.4,28.2,30.24,West,266,2.0,8.0,78,0.00,,,0.00,Wunderground v.1.15,2013-02-25 15:45:00,
2013-02-25 10:46:00,34.4,28.2,30.24,West,259,1.0,8.0,78,0.00,,,0.00,Wunderground v.1.15,2013-02-25 15:46:00,
2013-02-25 10:50:00,34.4,28.2,30.24,WSW,242,2.0,8.0,78,0.00,,,0.00,Wunderground v.1.15,2013-02-25 15:50:00,
2013-02-25 10:52:00,34.5,28.3,30.24,WSW,249,2.0,8.0,78,0.00,,,0.00,Wunderground v.1.15,2013-02-25 15:52:00,
2013-02-25 10:54:00,34.5,28.3,30.24,West,270,2.0,8.0,78,0.00,,,0.00,Wunderground v.1.15,2013-02-25 15:54:00,
2013-02-25 10:55:00,34.6,28.4,30.24,West,265,2.0,8.0,78,0.00,,,0.00,Wunderground v.1.15,2013-02-25 15:55:00,
2013-02-25 10:58:00,34.7,28.5,30.24,WSW,242,2.0,8.0,78,0.00,,,0.00,Wunderground v.1.15,2013-02-25 15:58:00,
2013-02-25 11:00:00,34.8,28.3,30.24,SW,225,2.0,2.0,77,0.00,,,0.00,Wunderground v.1.15,2013-02-25 16:00:00,
2013-02-25 11:03:00,35.0,28.5,30.24,West,273,1.0,8.0,77,0.00,,,0.00,Wunderground v.1.15,2013-02-25 16:03:00,
2013-02-25 11:05:00,35.1,28.6,30.24,SW,214,1.0,8.0,77,0.00,,,0.00,Wunderground v.1.15,2013-02-25 16:05:00,
2013-02-25 11:08:00,35.2,28.4,30.24,WSW,254,1.0,8.0,76,0.00,,,0.00,Wunderground v.1.15,2013-02-25 16:08:00,
2013-02-25 11:09:00,35.3,28.5,30.24,West,262,1.0,8.0,76,0.00,,,0.00,Wunderground v.1.15,2013-02-25 16:09:00,
2013-02-25 11:10:00,35.3,28.5,30.24,West,266,1.0,8.0,76,0.00,,,0.00,Wunderground v.1.15,2013-02-25 16:10:00,
2013-02-25 11:13:00,35.3,28.5,30.24,SW,235,1.0,8.0,76,0.00,,,0.00,Wunderground v.1.15,2013-02-25 16:13:00,
2013-02-25 11:17:00,35.5,28.7,30.24,WSW,242,1.0,8.0,76,0.00,,,0.00,Wunderground v.1.15,2013-02-25 16:17:00,
2013-02-25 11:18:00,35.5,28.7,30.24,WSW,249,1.0,8.0,76,0.00,,,0.00,Wunderground v.1.15,2013-02-25 16:18:00,
2013-02-25 11:19:00,35.5,28.4,30.24,WSW,256,2.0,8.0,75,0.00,,,0.00,Wunderground v.1.15,2013-02-25 16:19:00,
2013-02-25 11:22:00,35.6,28.8,30.24,WSW,243,1.0,8.0,76,0.00,,,0.00,Wunderground v.1.15,2013-02-25 16:22:00,
2013-02-25 11:23:00,35.7,28.9,30.24,West,271,1.0,8.0,76,0.00,,,0.00,Wunderground v.1.15,2013-02-25 16:23:00,
2013-02-25 11:24:00,35.7,28.9,30.24,WSW,257,1.0,8.0,76,0.00,,,0.00,Wunderground v.1.15,2013-02-25 16:24:00,
2013-02-25 11:29:00,35.9,29.1,30.25,West,263,1.0,8.0,76,0.00,,,0.00,Wunderground v.1.15,2013-02-25 16:29:00,
2013-02-25 11:31:00,35.9,28.7,30.25,WNW,285,1.0,8.0,75,0.00,,,0.00,Wunderground v.1.15,2013-02-25 16:31:00,
2013-02-25 11:32:00,35.8,28.6,30.25,West,260,1.0,8.0,75,0.00,,,0.00,Wunderground v.1.15,2013-02-25 16:32:00,
2013-02-25 11:34:00,35.8,29.0,30.25,WSW,240,2.0,8.0,76,0.00,,,0.00,Wunderground v.1.15,2013-02-25 16:34:00,
2013-02-25 11:36:00,35.9,29.1,30.25,WSW,245,2.0,8.0,76,0.00,,,0.00,Wunderground v.1.15,2013-02-25 16:36:00,
2013-02-25 11:39:00,35.8,29.0,30.25,West,266,2.0,8.0,76,0.00,,,0.00,Wunderground v.1.15,2013-02-25 16:39:00,
2013-02-25 11:41:00,35.8,29.0,30.25,WNW,285,2.0,4.0,76,0.00,,,0.00,Wunderground v.1.15,2013-02-25 16:41:00,
2013-02-25 11:43:00,35.8,29.0,30.25,WSW,257,3.0,8.0,76,0.00,,,0.00,Wunderground v.1.15,2013-02-25 16:43:00,
2013-02-25 11:44:00,35.8,29.0,30.25,SW,229,3.0,8.0,76,0.00,,,0.00,Wunderground v.1.15,2013-02-25 16:44:00,
2013-02-25 11:45:00,35.8,29.0,30.25,West,262,3.0,8.0,76,0.00,,,0.00,Wunderground v.1.15,2013-02-25 16:45:00,
2013-02-25 11:46:00,35.8,29.0,30.25,SSW,204,2.0,8.0,76,0.00,,,0.00,Wunderground v.1.15,2013-02-25 16:46:00,
2013-02-25 11:48:00,35.8,28.6,30.25,WSW,250,2.0,8.0,75,0.00,,,0.00,Wunderground v.1.15,2013-02-25 16:48:00,
2013-02-25 11:51:00,35.8,29.0,30.25,SW,233,2.0,8.0,76,0.00,,,0.00,Wunderground v.1.15,2013-02-25 16:51:00,
2013-02-25 11:53:00,35.9,29.1,30.25,West,269,2.0,8.0,76,0.00,,,0.00,Wunderground v.1.15,2013-02-25 16:53:00,
2013-02-25 11:55:00,35.9,29.1,30.25,West,259,2.0,8.0,76,0.00,,,0.00,Wunderground v.1.15,2013-02-25 16:55:00,
2013-02-25 11:56:00,35.9,29.1,30.25,WSW,248,2.0,8.0,76,0.00,,,0.00,Wunderground v.1.15,2013-02-25 16:56:00,
2013-02-25 11:57:00,35.9,29.1,30.25,SSW,204,2.0,8.0,76,0.00,,,0.00,Wunderground v.1.15,2013-02-25 16:57:00,
2013-02-25 12:02:00,35.9,29.1,30.25,WSW,254,2.0,8.0,76,0.00,,,0.00,Wunderground v.1.15,2013-02-25 17:02:00,
2013-02-25 12:03:00,35.9,29.1,30.25,WSW,257,2.0,8.0,76,0.00,,,0.00,Wunderground v.1.15,2013-02-25 17:03:00,
2013-02-25 12:07:00,36.1,28.9,30.25,West,270,1.0,8.0,75,0.00,,,0.00,Wunderground v.1.15,2013-02-25 17:07:00,
2013-02-25 12:08:00,36.1,28.9,30.25,WSW,256,1.0,8.0,75,0.00,,,0.00,Wunderground v.1.15,2013-02-25 17:08:00,
2013-02-25 12:10:00,36.1,28.9,30.25,WNW,283,1.0,8.0,75,0.00,,,0.00,Wunderground v.1.15,2013-02-25 17:10:00,
2013-02-25 12:12:00,36.1,28.6,30.25,WSW,239,1.0,8.0,74,0.00,,,0.00,Wunderground v.1.15,2013-02-25 17:12:00,
2013-02-25 12:13:00,36.1,28.6,30.25,WSW,257,1.0,8.0,74,0.00,,,0.00,Wunderground v.1.15,2013-02-25 17:13:00,
2013-02-25 12:17:00,36.1,28.6,30.26,WSW,248,1.0,8.0,74,0.00,,,0.00,Wunderground v.1.15,2013-02-25 17:17:00,
2013-02-25 12:20:00,36.1,28.9,30.26,SSE,160,1.0,1.0,75,0.00,,,0.00,Wunderground v.1.15,2013-02-25 17:20:00,
2013-02-25 12:22:00,36.1,28.9,30.26,SW,222,1.0,8.0,75,0.00,,,0.00,Wunderground v.1.15,2013-02-25 17:22:00,
2013-02-25 12:24:00,36.1,28.9,30.26,SW,231,1.0,8.0,75,0.00,,,0.00,Wunderground v.1.15,2013-02-25 17:24:00,
2013-02-25 12:25:00,36.1,28.9,30.25,WSW,248,1.0,8.0,75,0.00,,,0.00,Wunderground v.1.15,2013-02-25 17:25:00,
2013-02-25 12:26:00,36.0,28.8,30.26,South,170,1.0,8.0,75,0.00,,,0.00,Wunderground v.1.15,2013-02-25 17:26:00,
2013-02-25 12:28:00,36.0,28.5,30.26,SW,222,1.0,8.0,74,0.00,,,0.00,Wunderground v.1.15,2013-02-25 17:28:00,
2013-02-25 12:32:00,36.0,28.8,30.26,South,176,1.0,8.0,75,0.00,,,0.00,Wunderground v.1.15,2013-02-25 17:32:00,
2013-02-25 12:34:00,36.0,28.5,30.26,SSW,194,1.0,8.0,74,0.00,,,0.00,Wunderground v.1.15,2013-02-25 17:34:00,
2013-02-25 12:35:00,36.0,28.5,30.26,South,190,1.0,8.0,74,0.00,,,0.00,Wunderground v.1.15,2013-02-25 17:35:00,
2013-02-25 12:36:00,36.0,28.2,30.25,SSW,207,1.0,8.0,73,0.00,,,0.00,Wunderground v.1.15,2013-02-25 17:36:00,
2013-02-25 12:37:00,36.0,28.2,30.25,WSW,255,1.0,8.0,73,0.00,,,0.00,Wunderground v.1.15,2013-02-25 17:37:00,
2013-02-25 12:39:00,36.0,28.2,30.26,West,277,1.0,8.0,73,0.00,,,0.00,Wunderground v.1.15,2013-02-25 17:39:00,
2013-02-25 12:40:00,36.0,28.2,30.25,West,263,1.0,8.0,73,0.00,,,0.00,Wunderground v.1.15,2013-02-25 17:40:00,
2013-02-25 12:42:00,36.0,28.2,30.26,West,264,1.0,8.0,73,0.00,,,0.00,Wunderground v.1.15,2013-02-25 17:42:00,
2013-02-25 12:44:00,35.9,27.7,30.26,WNW,282,1.0,8.0,72,0.00,,,0.00,Wunderground v.1.15,2013-02-25 17:44:00,
2013-02-25 12:48:00,35.9,28.1,30.26,WSW,250,1.0,8.0,73,0.00,,,0.00,Wunderground v.1.15,2013-02-25 17:48:00,
2013-02-25 12:49:00,35.9,27.4,30.26,WSW,242,2.0,8.0,71,0.00,,,0.00,Wunderground v.1.15,2013-02-25 17:49:00,
2013-02-25 12:50:00,35.9,27.4,30.26,SW,232,2.0,2.0,71,0.00,,,0.00,Wunderground v.1.15,2013-02-25 17:50:00,
2013-02-25 12:51:00,35.9,27.4,30.25,WSW,241,1.0,8.0,71,0.00,,,0.00,Wunderground v.1.15,2013-02-25 17:51:00,
2013-02-25 12:53:00,35.9,27.4,30.26,WSW,256,2.0,8.0,71,0.00,,,0.00,Wunderground v.1.15,2013-02-25 17:53:00,
2013-02-25 12:56:00,35.9,27.1,30.26,West,281,2.0,8.0,70,0.00,,,0.00,Wunderground v.1.15,2013-02-25 17:56:00,
2013-02-25 12:57:00,35.9,27.1,30.26,SW,228,2.0,8.0,70,0.00,,,0.00,Wunderground v.1.15,2013-02-25 17:57:00,
2013-02-25 13:02:00,36.0,27.2,30.26,West,271,2.0,8.0,70,0.00,,,0.00,Wunderground v.1.15,2013-02-25 18:02:00,
2013-02-25 13:05:00,36.0,27.2,30.26,WSW,242,1.0,8.0,70,0.00,,,0.00,Wunderground v.1.15,2013-02-25 18:05:00,
2013-02-25 13:06:00,36.0,27.5,30.26,SW,224,1.0,8.0,71,0.00,,,0.00,Wunderground v.1.15,2013-02-25 18:06:00,
2013-02-25 13:09:00,36.0,27.8,30.26,WSW,253,1.0,8.0,72,0.00,,,0.00,Wunderground v.1.15,2013-02-25 18:09:00,
2013-02-25 13:10:00,35.9,27.7,30.26,WSW,248,1.0,8.0,72,0.00,,,0.00,Wunderground v.1.15,2013-02-25 18:10:00,
2013-02-25 13:11:00,35.9,28.1,30.26,West,265,1.0,8.0,73,0.00,,,0.00,Wunderground v.1.15,2013-02-25 18:11:00,
2013-02-25 13:14:00,35.8,28.3,30.26,West,281,1.0,8.0,74,0.00,,,0.00,Wunderground v.1.15,2013-02-25 18:14:00,
2013-02-25 13:15:00,35.7,28.2,30.26,WSW,240,1.0,8.0,74,0.00,,,0.00,Wunderground v.1.15,2013-02-25 18:15:00,
2013-02-25 13:16:00,35.7,28.2,30.26,West,273,1.0,8.0,74,0.00,,,0.00,Wunderground v.1.15,2013-02-25 18:16:00,
2013-02-25 13:17:00,35.7,28.2,30.26,WSW,251,1.0,8.0,74,0.00,,,0.00,Wunderground v.1.15,2013-02-25 18:17:00,
2013-02-25 13:19:00,35.6,28.1,30.26,SW,223,2.0,8.0,74,0.00,,,0.00,Wunderground v.1.15,2013-02-25 18:19:00,
2013-02-25 13:20:00,35.6,28.1,30.26,WSW,239,2.0,8.0,74,0.00,,,0.00,Wunderground v.1.15,2013-02-25 18:20:00,
2013-02-25 13:22:00,35.6,28.1,30.26,West,260,2.0,8.0,74,0.00,,,0.00,Wunderground v.1.15,2013-02-25 18:22:00,
2013-02-25 13:23:00,35.6,28.1,30.26,WNW,287,2.0,8.0,74,0.00,,,0.00,Wunderground v.1.15,2013-02-25 18:23:00,
2013-02-25 13:26:00,35.6,28.1,30.26,WNW,288,2.0,8.0,74,0.00,,,0.00,Wunderground v.1.15,2013-02-25 18:26:00,
2013-02-25 13:29:00,35.6,28.5,30.26,South,187,2.0,8.0,75,0.00,,,0.00,Wunderground v.1.15,2013-02-25 18:29:00,
2013-02-25 13:30:00,35.7,28.6,30.26,WSW,238,2.0,8.0,75,0.00,,,0.00,Wunderground v.1.15,2013-02-25 18:30:00,
2013-02-25 13:31:00,35.7,28.2,30.26,WNW,288,2.0,8.0,74,0.00,,,0.00,Wunderground v.1.15,2013-02-25 18:31:00,
2013-02-25 13:36:00,35.8,28.0,30.25,WSW,243,2.0,8.0,73,0.00,,,0.00,Wunderground v.1.15,2013-02-25 18:36:00,
2013-02-25 13:37:00,35.8,28.0,30.25,SW,235,2.0,8.0,73,0.00,,,0.00,Wunderground v.1.15,2013-02-25 18:37:00,
2013-02-25 13:40:00,35.7,28.2,30.26,WSW,246,2.0,8.0,74,0.00,,,0.00,Wunderground v.1.15,2013-02-25 18:40:00,
2013-02-25 13:41:00,35.7,28.2,30.25,SW,224,2.0,8.0,74,0.00,,,0.00,Wunderground v.1.15,2013-02-25 18:41:00,
2013-02-25 13:45:00,35.8,28.3,30.25,WSW,250,2.0,8.0,74,0.00,,,0.00,Wunderground v.1.15,2013-02-25 18:45:00,
2013-02-25 13:48:00,35.7,28.2,30.25,West,260,2.0,8.0,74,0.00,,,0.00,Wunderground v.1.15,2013-02-25 18:48:00,
2013-02-25 13:49:00,35.8,28.3,30.25,WSW,249,2.0,8.0,74,0.00,,,0.00,Wunderground v.1.15,2013-02-25 18:49:00,
2013-02-25 13:50:00,35.7,27.9,30.25,SW,235,2.0,8.0,73,0.00,,,0.00,Wunderground v.1.15,2013-02-25 18:50:00,
2013-02-25 13:51:00,35.7,27.6,30.26,SW,235,3.0,8.0,72,0.00,,,0.00,Wunderground v.1.15,2013-02-25 18:51:00,
2013-02-25 13:55:00,35.6,27.8,30.26,West,271,3.0,8.0,73,0.00,,,0.00,Wunderground v.1.15,2013-02-25 18:55:00,
2013-02-25 13:56:00,35.6,27.8,30.26,WSW,240,3.0,8.0,73,0.00,,,0.00,Wunderground v.1.15,2013-02-25 18:56:00,
2013-02-25 13:58:00,35.6,27.8,30.26,WSW,245,2.0,8.0,73,0.00,,,0.00,Wunderground v.1.15,2013-02-25 18:58:00,
2013-02-25 14:02:00,35.6,28.1,30.26,West,266,2.0,8.0,74,0.00,,,0.00,Wunderground v.1.15,2013-02-25 19:02:00,
2013-02-25 14:03:00,35.6,28.1,30.26,West,275,2.0,8.0,74,0.00,,,0.00,Wunderground v.1.15,2013-02-25 19:03:00,
2013-02-25 14:04:00,35.6,28.1,30.26,West,270,2.0,8.0,74,0.00,,,0.00,Wunderground v.1.15,2013-02-25 19:04:00,
2013-02-25 14:08:00,35.5,28.0,30.26,WNW,291,3.0,8.0,74,0.00,,,0.00,Wunderground v.1.15,2013-02-25 19:08:00,
2013-02-25 14:09:00,35.5,27.7,30.26,West,267,3.0,8.0,73,0.00,,,0.00,Wunderground v.1.15,2013-02-25 19:09:00,
2013-02-25 14:11:00,35.5,28.0,30.26,West,263,3.0,8.0,74,0.00,,,0.00,Wunderground v.1.15,2013-02-25 19:11:00,
2013-02-25 14:12:00,35.6,28.1,30.26,WNW,283,3.0,8.0,74,0.00,,,0.00,Wunderground v.1.15,2013-02-25 19:12:00,
2013-02-25 14:16:00,35.5,28.0,30.26,West,276,2.0,8.0,74,0.00,,,0.00,Wunderground v.1.15,2013-02-25 19:16:00,
2013-02-25 14:17:00,35.5,28.0,30.26,West,264,2.0,8.0,74,0.00,,,0.00,Wunderground v.1.15,2013-02-25 19:17:00,
2013-02-25 14:18:00,35.5,28.4,30.26,WNW,286,2.0,8.0,75,0.00,,,0.00,Wunderground v.1.15,2013-02-25 19:18:00,
2013-02-25 14:19:00,35.6,28.5,30.26,West,271,2.0,8.0,75,0.00,,,0.00,Wunderground v.1.15,2013-02-25 19:19:00,
2013-02-25 14:22:00,35.6,28.5,30.26,West,269,2.0,8.0,75,0.00,,,0.00,Wunderground v.1.15,2013-02-25 19:22:00,
2013-02-25 14:24:00,35.7,28.6,30.25,WSW,252,1.0,8.0,75,0.00,,,0.00,Wunderground v.1.15,2013-02-25 19:24:00,
2013-02-25 14:25:00,35.7,28.6,30.25,West,262,1.0,8.0,75,0.00,,,0.00,Wunderground v.1.15,2013-02-25 19:25:00,
2013-02-25 14:29:00,35.7,28.2,30.25,West,269,1.0,8.0,74,0.00,,,0.00,Wunderground v.1.15,2013-02-25 19:29:00,
2013-02-25 14:30:00,35.7,28.2,30.25,WSW,256,1.0,8.0,74,0.00,,,0.00,Wunderground v.1.15,2013-02-25 19:30:00,
2013-02-25 14:31:00,35.7,28.6,30.25,WNW,287,1.0,8.0,75,0.00,,,0.00,Wunderground v.1.15,2013-02-25 19:31:00,
2013-02-25 14:33:00,35.7,28.6,30.25,West,263,1.0,8.0,75,0.00,,,0.00,Wunderground v.1.15,2013-02-25 19:33:00,
2013-02-25 14:35:00,35.7,28.6,30.25,WSW,249,2.0,8.0,75,0.00,,,0.00,Wunderground v.1.15,2013-02-25 19:35:00,
2013-02-25 14:36:00,35.6,28.5,30.25,SW,215,2.0,8.0,75,0.00,,,0.00,Wunderground v.1.15,2013-02-25 19:36:00,
2013-02-25 14:38:00,35.6,28.5,30.25,WSW,237,2.0,8.0,75,0.00,,,0.00,Wunderground v.1.15,2013-02-25 19:38:00,
2013-02-25 14:39:00,35.5,28.4,30.25,SW,233,2.0,8.0,75,0.00,,,0.00,Wunderground v.1.15,2013-02-25 19:39:00,
2013-02-25 14:41:00,35.5,28.7,30.25,WSW,249,2.0,8.0,76,0.00,,,0.00,Wunderground v.1.15,2013-02-25 19:41:00,
2013-02-25 14:44:00,35.4,28.6,30.25,West,274,2.0,8.0,76,0.00,,,0.00,Wunderground v.1.15,2013-02-25 19:44:00,
2013-02-25 14:46:00,35.3,28.5,30.26,WSW,249,2.0,8.0,76,0.00,,,0.00,Wunderground v.1.15,2013-02-25 19:46:00,
2013-02-25 14:47:00,35.3,28.8,30.26,West,264,2.0,8.0,77,0.00,,,0.00,Wunderground v.1.15,2013-02-25 19:47:00,
2013-02-25 14:52:00,35.4,29.2,30.25,WNW,296,1.0,8.0,78,0.00,,,0.00,Wunderground v.1.15,2013-02-25 19:52:00,
2013-02-25 14:54:00,35.3,29.1,30.25,WNW,287,1.0,8.0,78,0.00,,,0.00,Wunderground v.1.15,2013-02-25 19:54:00,
2013-02-25 14:56:00,35.3,29.1,30.25,WNW,283,1.0,8.0,78,0.00,,,0.00,Wunderground v.1.15,2013-02-25 19:56:00,
2013-02-25 14:57:00,35.3,29.1,30.25,WNW,292,1.0,8.0,78,0.00,,,0.00,Wunderground v.1.15,2013-02-25 19:57:00,
2013-02-25 14:58:00,35.3,29.1,30.25,West,281,1.0,8.0,78,0.00,,,0.00,Wunderground v.1.15,2013-02-25 19:58:00,
2013-02-25 15:01:00,35.3,29.4,30.25,WNW,298,1.0,8.0,79,0.00,,,0.00,Wunderground v.1.15,2013-02-25 20:01:00,
2013-02-25 15:04:00,35.4,29.5,30.25,North,359,1.0,8.0,79,0.00,,,0.00,Wunderground v.1.15,2013-02-25 20:04:00,
2013-02-25 15:05:00,35.4,29.5,30.25,WNW,287,1.0,8.0,79,0.00,,,0.00,Wunderground v.1.15,2013-02-25 20:05:00,
2013-02-25 15:07:00,35.4,29.5,30.25,West,281,1.0,8.0,79,0.00,,,0.00,Wunderground v.1.15,2013-02-25 20:07:00,
2013-02-25 15:08:00,35.4,29.8,30.26,West,265,1.0,8.0,80,0.00,,,0.00,Wunderground v.1.15,2013-02-25 20:08:00,
2013-02-25 15:11:00,35.5,29.9,30.26,WSW,245,1.0,8.0,80,0.00,,,0.00,Wunderground v.1.15,2013-02-25 20:11:00,
2013-02-25 15:12:00,35.4,29.5,30.26,WSW,238,1.0,8.0,79,0.00,,,0.00,Wunderground v.1.15,2013-02-25 20:12:00,
2013-02-25 15:13:00,35.3,29.4,30.26,West,270,1.0,8.0,79,0.00,,,0.00,Wunderground v.1.15,2013-02-25 20:13:00,
2013-02-25 15:14:00,35.3,29.4,30.26,West,274,1.0,8.0,79,0.00,,,0.00,Wunderground v.1.15,2013-02-25 20:14:00,
2013-02-25 15:17:00,35.3,29.4,30.26,WSW,248,1.0,8.0,79,0.00,,,0.00,Wunderground v.1.15,2013-02-25 20:17:00,
2013-02-25 15:22:00,35.2,29.6,30.26,WNW,290,1.0,8.0,80,0.00,,,0.00,Wunderground v.1.15,2013-02-25 20:22:00,
2013-02-25 15:25:00,35.2,29.6,30.26,WSW,252,1.0,8.0,80,0.00,,,0.00,Wunderground v.1.15,2013-02-25 20:25:00,
2013-02-25 15:26:00,35.2,29.6,30.26,NW,326,1.0,8.0,80,0.00,,,0.00,Wunderground v.1.15,2013-02-25 20:26:00,
2013-02-25 15:28:00,35.2,29.6,30.26,West,263,1.0,8.0,80,0.00,,,0.00,Wunderground v.1.15,2013-02-25 20:28:00,
2013-02-25 15:31:00,35.2,30.0,30.25,NW,318,1.0,8.0,81,0.00,,,0.00,Wunderground v.1.15,2013-02-25 20:31:00,
2013-02-25 15:33:00,35.3,30.1,30.25,NW,305,1.0,8.0,81,0.00,,,0.00,Wunderground v.1.15,2013-02-25 20:33:00,
2013-02-25 15:35:00,35.2,29.6,30.25,West,269,1.0,8.0,80,0.00,,,0.00,Wunderground v.1.15,2013-02-25 20:35:00,
2013-02-25 15:37:00,35.2,30.0,30.26,West,266,1.0,8.0,81,0.00,,,0.00,Wunderground v.1.15,2013-02-25 20:37:00,
2013-02-25 15:40:00,35.1,29.9,30.26,West,281,1.0,8.0,81,0.00,,,0.00,Wunderground v.1.15,2013-02-25 20:40:00,
2013-02-25 15:42:00,35.1,29.9,30.26,WNW,291,1.0,8.0,81,0.00,,,0.00,Wunderground v.1.15,2013-02-25 20:42:00,
2013-02-25 15:44:00,35.2,29.6,30.25,WSW,243,1.0,8.0,80,0.00,,,0.00,Wunderground v.1.15,2013-02-25 20:44:00,
2013-02-25 15:46:00,35.1,29.2,30.25,WNW,293,1.0,8.0,79,0.00,,,0.00,Wunderground v.1.15,2013-02-25 20:46:00,
2013-02-25 15:47:00,35.1,29.6,30.25,NW,308,1.0,8.0,80,0.00,,,0.00,Wunderground v.1.15,2013-02-25 20:47:00,
2013-02-25 15:49:00,35.1,29.6,30.25,NNW,345,1.0,8.0,80,0.00,,,0.00,Wunderground v.1.15,2013-02-25 20:49:00,
2013-02-25 15:52:00,35.0,29.5,30.25,WNW,290,1.0,8.0,80,0.00,,,0.00,Wunderground v.1.15,2013-02-25 20:52:00,
2013-02-25 15:53:00,35.0,29.5,30.25,WNW,291,1.0,8.0,80,0.00,,,0.00,Wunderground v.1.15,2013-02-25 20:53:00,
2013-02-25 15:55:00,35.0,29.8,30.25,WSW,246,1.0,8.0,81,0.00,,,0.00,Wunderground v.1.15,2013-02-25 20:55:00,
2013-02-25 15:56:00,35.0,29.5,30.25,SW,233,1.0,8.0,80,0.00,,,0.00,Wunderground v.1.15,2013-02-25 20:56:00,
2013-02-25 15:57:00,34.9,29.4,30.25,WSW,253,1.0,8.0,80,0.00,,,0.00,Wunderground v.1.15,2013-02-25 20:57:00,
2013-02-25 16:00:00,34.9,29.7,30.25,WSW,252,1.0,1.0,81,0.00,,,0.00,Wunderground v.1.15,2013-02-25 21:00:00,
2013-02-25 16:01:00,34.9,29.7,30.25,West,262,0.0,8.0,81,0.00,,,0.00,Wunderground v.1.15,2013-02-25 21:01:00,
2013-02-25 16:02:00,35.0,29.8,30.25,West,262,0.0,8.0,81,0.00,,,0.00,Wunderground v.1.15,2013-02-25 21:02:00,
2013-02-25 16:03:00,34.9,29.7,30.25,West,262,0.0,8.0,81,0.00,,,0.00,Wunderground v.1.15,2013-02-25 21:03:00,
2013-02-25 16:08:00,34.9,29.7,30.25,WSW,249,0.0,8.0,81,0.00,,,0.00,Wunderground v.1.15,2013-02-25 21:08:00,
2013-02-25 16:09:00,34.9,29.7,30.25,WSW,249,0.0,8.0,81,0.00,,,0.00,Wunderground v.1.15,2013-02-25 21:09:00,
2013-02-25 16:12:00,34.8,29.9,30.25,West,268,0.0,8.0,82,0.00,,,0.00,Wunderground v.1.15,2013-02-25 21:12:00,
2013-02-25 16:14:00,34.8,29.9,30.25,West,269,0.0,8.0,82,0.00,,,0.00,Wunderground v.1.15,2013-02-25 21:14:00,
2013-02-25 16:15:00,34.8,29.9,30.25,West,259,0.0,8.0,82,0.00,,,0.00,Wunderground v.1.15,2013-02-25 21:15:00,
2013-02-25 16:17:00,34.7,29.8,30.25,WSW,252,0.0,8.0,82,0.00,,,0.00,Wunderground v.1.15,2013-02-25 21:17:00,
2013-02-25 16:22:00,34.6,29.7,30.24,SW,228,0.0,8.0,82,0.00,,,0.00,Wunderground v.1.15,2013-02-25 21:22:00,
2013-02-25 16:23:00,34.6,29.7,30.24,WNW,287,0.0,8.0,82,0.00,,,0.00,Wunderground v.1.15,2013-02-25 21:23:00,
2013-02-25 16:24:00,34.6,29.7,30.24,WSW,255,1.0,8.0,82,0.00,,,0.00,Wunderground v.1.15,2013-02-25 21:24:00,
2013-02-25 16:25:00,34.6,29.7,30.24,WSW,253,1.0,8.0,82,0.00,,,0.00,Wunderground v.1.15,2013-02-25 21:25:00,
2013-02-25 16:29:00,34.5,29.6,30.24,WSW,245,1.0,8.0,82,0.00,,,0.00,Wunderground v.1.15,2013-02-25 21:29:00,
2013-02-25 16:30:00,34.5,29.6,30.24,WSW,244,1.0,8.0,82,0.00,,,0.00,Wunderground v.1.15,2013-02-25 21:30:00,
2013-02-25 16:31:00,34.4,29.5,30.24,WSW,245,1.0,8.0,82,0.00,,,0.00,Wunderground v.1.15,2013-02-25 21:31:00,
2013-02-25 16:34:00,34.4,29.8,30.25,WSW,250,1.0,8.0,83,0.00,,,0.00,Wunderground v.1.15,2013-02-25 21:34:00,
2013-02-25 16:35:00,34.5,29.9,30.25,WSW,250,1.0,8.0,83,0.00,,,0.00,Wunderground v.1.15,2013-02-25 21:35:00,
2013-02-25 16:38:00,34.5,29.6,30.25,WSW,248,0.0,8.0,82,0.00,,,0.00,Wunderground v.1.15,2013-02-25 21:38:00,
2013-02-25 16:40:00,34.4,29.5,30.25,WSW,249,0.0,8.0,82,0.00,,,0.00,Wunderground v.1.15,2013-02-25 21:40:00,
2013-02-25 16:42:00,34.4,29.5,30.25,West,270,0.0,8.0,82,0.00,,,0.00,Wunderground v.1.15,2013-02-25 21:42:00,
2013-02-25 16:45:00,34.4,29.5,30.25,WSW,248,0.0,8.0,82,0.00,,,0.00,Wunderground v.1.15,2013-02-25 21:45:00,
2013-02-25 16:46:00,34.4,29.5,30.25,WSW,252,0.0,8.0,82,0.00,,,0.00,Wunderground v.1.15,2013-02-25 21:46:00,
2013-02-25 16:47:00,34.4,29.5,30.25,WSW,252,0.0,8.0,82,0.00,,,0.00,Wunderground v.1.15,2013-02-25 21:47:00,
2013-02-25 16:48:00,34.4,29.5,30.25,WSW,253,0.0,8.0,82,0.00,,,0.00,Wunderground v.1.15,2013-02-25 21:48:00,
2013-02-25 16:51:00,34.4,29.5,30.25,WSW,257,0.0,8.0,82,0.00,,,0.00,Wunderground v.1.15,2013-02-25 21:51:00,
2013-02-25 16:52:00,34.4,29.5,30.25,WSW,257,0.0,8.0,82,0.00,,,0.00,Wunderground v.1.15,2013-02-25 21:52:00,
2013-02-25 16:54:00,34.4,29.5,30.25,West,271,0.0,8.0,82,0.00,,,0.00,Wunderground v.1.15,2013-02-25 21:54:00,
2013-02-25 16:55:00,34.4,29.5,30.25,West,271,0.0,8.0,82,0.00,,,0.00,Wunderground v.1.15,2013-02-25 21:55:00,
2013-02-25 16:57:00,34.3,29.4,30.25,West,265,0.0,8.0,82,0.00,,,0.00,Wunderground v.1.15,2013-02-25 21:57:00,
2013-02-25 16:58:00,34.3,29.4,30.25,West,266,0.0,8.0,82,0.00,,,0.00,Wunderground v.1.15,2013-02-25 21:58:00,
2013-02-25 17:00:00,34.4,29.5,30.25,West,266,0.0,8.0,82,0.00,,,0.00,Wunderground v.1.15,2013-02-25 22:00:00,
2013-02-25 17:01:00,34.4,29.5,30.26,WSW,257,0.0,8.0,82,0.00,,,0.00,Wunderground v.1.15,2013-02-25 22:01:00,
2013-02-25 17:02:00,34.4,29.5,30.26,WSW,257,0.0,8.0,82,0.00,,,0.00,Wunderground v.1.15,2013-02-25 22:02:00,
2013-02-25 17:06:00,34.4,29.5,30.26,West,267,0.0,8.0,82,0.00,,,0.00,Wunderground v.1.15,2013-02-25 22:06:00,
2013-02-25 17:08:00,34.4,29.5,30.26,WSW,243,0.0,8.0,82,0.00,,,0.00,Wunderground v.1.15,2013-02-25 22:08:00,
2013-02-25 17:09:00,34.4,29.5,30.26,WSW,243,0.0,8.0,82,0.00,,,0.00,Wunderground v.1.15,2013-02-25 22:09:00,
2013-02-25 17:10:00,34.4,29.2,30.26,West,271,0.0,8.0,81,0.00,,,0.00,Wunderground v.1.15,2013-02-25 22:10:00,
2013-02-25 17:13:00,34.4,29.2,30.26,WSW,250,0.0,8.0,81,0.00,,,0.00,Wunderground v.1.15,2013-02-25 22:13:00,
2013-02-25 17:14:00,34.4,29.2,30.26,WSW,249,1.0,8.0,81,0.00,,,0.00,Wunderground v.1.15,2013-02-25 22:14:00,
2013-02-25 17:17:00,34.4,29.2,30.26,WSW,250,1.0,8.0,81,0.00,,,0.00,Wunderground v.1.15,2013-02-25 22:17:00,
2013-02-25 17:18:00,34.3,29.1,30.26,WSW,249,1.0,8.0,81,0.00,,,0.00,Wunderground v.1.15,2013-02-25 22:18:00,
2013-02-25 17:19:00,34.3,29.1,30.26,WSW,249,1.0,8.0,81,0.00,,,0.00,Wunderground v.1.15,2013-02-25 22:19:00,
2013-02-25 17:22:00,34.4,29.2,30.26,WSW,255,0.0,8.0,81,0.00,,,0.00,Wunderground v.1.15,2013-02-25 22:22:00,
2013-02-25 17:24:00,34.3,29.1,30.25,WSW,246,0.0,8.0,81,0.00,,,0.00,Wunderground v.1.15,2013-02-25 22:24:00,
2013-02-25 17:26:00,34.3,29.1,30.25,WSW,250,0.0,8.0,81,0.00,,,0.00,Wunderground v.1.15,2013-02-25 22:26:00,
2013-02-25 17:29:00,34.3,29.1,30.25,WSW,255,0.0,8.0,81,0.00,,,0.00,Wunderground v.1.15,2013-02-25 22:29:00,
2013-02-25 17:30:00,34.3,29.1,30.25,WSW,253,0.0,8.0,81,0.00,,,0.00,Wunderground v.1.15,2013-02-25 22:30:00,
2013-02-25 17:32:00,34.3,29.1,30.25,West,278,0.0,8.0,81,0.00,,,0.00,Wunderground v.1.15,2013-02-25 22:32:00,
2013-02-25 17:35:00,34.3,29.1,30.25,West,275,0.0,8.0,81,0.00,,,0.00,Wunderground v.1.15,2013-02-25 22:35:00,
2013-02-25 17:37:00,34.3,29.1,30.25,WSW,255,0.0,8.0,81,0.00,,,0.00,Wunderground v.1.15,2013-02-25 22:37:00,
2013-02-25 17:38:00,34.3,29.1,30.25,WSW,255,0.0,8.0,81,0.00,,,0.00,Wunderground v.1.15,2013-02-25 22:38:00,
2013-02-25 17:39:00,34.3,29.1,30.25,WSW,255,0.0,8.0,81,0.00,,,0.00,Wunderground v.1.15,2013-02-25 22:39:00,
2013-02-25 17:41:00,34.3,29.1,30.25,WSW,255,0.0,8.0,81,0.00,,,0.00,Wunderground v.1.15,2013-02-25 22:41:00,
2013-02-25 17:43:00,34.2,29.0,30.25,WSW,255,0.0,8.0,81,0.00,,,0.00,Wunderground v.1.15,2013-02-25 22:43:00,
2013-02-25 17:45:00,34.2,29.0,30.25,WSW,255,0.0,8.0,81,0.00,,,0.00,Wunderground v.1.15,2013-02-25 22:45:00,
2013-02-25 17:46:00,34.2,29.0,30.25,WSW,255,0.0,8.0,81,0.00,,,0.00,Wunderground v.1.15,2013-02-25 22:46:00,
2013-02-25 17:48:00,34.2,29.0,30.25,WSW,255,0.0,8.0,81,0.00,,,0.00,Wunderground v.1.15,2013-02-25 22:48:00,
2013-02-25 17:52:00,34.1,28.9,30.25,WSW,255,0.0,8.0,81,0.00,,,0.00,Wunderground v.1.15,2013-02-25 22:52:00,
2013-02-25 17:53:00,34.1,28.9,30.25,WSW,255,0.0,8.0,81,0.00,,,0.00,Wunderground v.1.15,2013-02-25 22:53:00,
2013-02-25 17:55:00,34.1,28.9,30.25,WSW,255,0.0,8.0,81,0.00,,,0.00,Wunderground v.1.15,2013-02-25 22:55:00,
2013-02-25 17:57:00,34.0,28.8,30.25,WSW,255,0.0,8.0,81,0.00,,,0.00,Wunderground v.1.15,2013-02-25 22:57:00,
2013-02-25 18:00:00,34.0,29.1,30.25,WSW,255,0.0,8.0,82,0.00,,,0.00,Wunderground v.1.15,2013-02-25 23:00:00,
2013-02-25 18:02:00,34.0,29.1,30.25,WSW,255,0.0,8.0,82,0.00,,,0.00,Wunderground v.1.15,2013-02-25 23:02:00,
2013-02-25 18:03:00,34.0,29.1,30.25,WSW,255,0.0,8.0,82,0.00,,,0.00,Wunderground v.1.15,2013-02-25 23:03:00,
2013-02-25 18:04:00,34.0,29.1,30.25,WSW,255,0.0,8.0,82,0.00,,,0.00,Wunderground v.1.15,2013-02-25 23:04:00,
2013-02-25 18:07:00,33.9,29.0,30.25,WSW,240,0.0,8.0,82,0.00,,,0.00,Wunderground v.1.15,2013-02-25 23:07:00,
2013-02-25 18:09:00,33.9,29.0,30.25,SW,216,0.0,8.0,82,0.00,,,0.00,Wunderground v.1.15,2013-02-25 23:09:00,
2013-02-25 18:10:00,33.9,29.0,30.25,SW,215,0.0,8.0,82,0.00,,,0.00,Wunderground v.1.15,2013-02-25 23:10:00,
2013-02-25 18:14:00,33.9,29.0,30.25,WSW,256,0.0,8.0,82,0.00,,,0.00,Wunderground v.1.15,2013-02-25 23:14:00,
2013-02-25 18:16:00,33.9,29.0,30.25,WSW,256,0.0,8.0,82,0.00,,,0.00,Wunderground v.1.15,2013-02-25 23:16:00,
2013-02-25 18:17:00,33.9,29.0,30.25,WSW,256,0.0,8.0,82,0.00,,,0.00,Wunderground v.1.15,2013-02-25 23:17:00,
2013-02-25 18:19:00,33.9,29.0,30.26,WSW,256,0.0,8.0,82,0.00,,,0.00,Wunderground v.1.15,2013-02-25 23:19:00,
2013-02-25 18:23:00,33.9,29.0,30.26,WSW,256,0.0,8.0,82,0.00,,,0.00,Wunderground v.1.15,2013-02-25 23:23:00,
2013-02-25 18:24:00,33.9,29.0,30.26,WSW,256,0.0,8.0,82,0.00,,,0.00,Wunderground v.1.15,2013-02-25 23:24:00,
2013-02-25 18:25:00,33.9,29.0,30.26,WSW,256,0.0,8.0,82,0.00,,,0.00,Wunderground v.1.15,2013-02-25 23:25:00,
2013-02-25 18:27:00,33.9,29.0,30.26,WSW,256,0.0,8.0,82,0.00,,,0.00,Wunderground v.1.15,2013-02-25 23:27:00,
2013-02-25 18:30:00,33.9,29.0,30.26,WSW,245,0.0,8.0,82,0.00,,,0.00,Wunderground v.1.15,2013-02-25 23:30:00,
2013-02-25 18:32:00,33.9,29.0,30.26,WSW,245,0.0,8.0,82,0.00,,,0.00,Wunderground v.1.15,2013-02-25 23:32:00,
2013-02-25 18:33:00,33.9,29.0,30.26,WSW,245,0.0,8.0,82,0.00,,,0.00,Wunderground v.1.15,2013-02-25 23:33:00,
2013-02-25 18:35:00,33.9,29.0,30.26,WSW,244,0.0,8.0,82,0.00,,,0.00,Wunderground v.1.15,2013-02-25 23:35:00,
2013-02-25 18:39:00,33.9,29.0,30.26,WSW,245,0.0,8.0,82,0.00,,,0.00,Wunderground v.1.15,2013-02-25 23:39:00,
2013-02-25 18:40:00,33.8,28.9,30.27,WSW,245,0.0,8.0,82,0.00,,,0.00,Wunderground v.1.15,2013-02-25 23:40:00,
2013-02-25 18:42:00,33.8,28.9,30.26,WSW,249,0.0,8.0,82,0.00,,,0.00,Wunderground v.1.15,2013-02-25 23:42:00,
2013-02-25 18:44:00,33.9,29.0,30.26,WSW,248,0.0,8.0,82,0.00,,,0.00,Wunderground v.1.15,2013-02-25 23:44:00,
2013-02-25 18:45:00,33.9,29.0,30.26,WSW,249,0.0,8.0,82,0.00,,,0.00,Wunderground v.1.15,2013-02-25 23:45:00,
2013-02-25 18:47:00,33.8,28.9,30.26,WSW,249,0.0,8.0,82,0.00,,,0.00,Wunderground v.1.15,2013-02-25 23:47:00,
2013-02-25 18:48:00,33.8,28.9,30.26,WSW,249,0.0,8.0,82,0.00,,,0.00,Wunderground v.1.15,2013-02-25 23:48:00,
2013-02-25 18:50:00,33.8,28.9,30.26,WSW,249,0.0,8.0,82,0.00,,,0.00,Wunderground v.1.15,2013-02-25 23:50:00,
2013-02-25 18:51:00,33.9,29.0,30.26,WSW,249,0.0,8.0,82,0.00,,,0.00,Wunderground v.1.15,2013-02-25 23:51:00,
2013-02-25 18:52:00,33.8,28.9,30.26,WSW,249,0.0,8.0,82,0.00,,,0.00,Wunderground v.1.15,2013-02-25 23:52:00,
2013-02-25 18:53:00,33.8,28.9,30.26,WSW,249,0.0,8.0,82,0.00,,,0.00,Wunderground v.1.15,2013-02-25 23:53:00,
2013-02-25 18:56:00,33.7,28.8,30.26,WSW,246,0.0,8.0,82,0.00,,,0.00,Wunderground v.1.15,2013-02-25 23:56:00,
2013-02-25 19:01:00,33.6,28.7,30.26,WSW,246,0.0,8.0,82,0.00,,,0.00,Wunderground v.1.15,2013-02-26 00:01:00,
2013-02-25 19:02:00,33.6,28.7,30.26,WSW,246,0.0,8.0,82,0.00,,,0.00,Wunderground v.1.15,2013-02-26 00:02:00,
2013-02-25 19:04:00,33.6,28.7,30.26,WSW,246,0.0,8.0,82,0.00,,,0.00,Wunderground v.1.15,2013-02-26 00:04:00,
2013-02-25 19:05:00,33.5,28.6,30.26,WSW,246,0.0,8.0,82,0.00,,,0.00,Wunderground v.1.15,2013-02-26 00:05:00,
2013-02-25 19:07:00,33.5,28.6,30.26,WSW,246,0.0,8.0,82,0.00,,,0.00,Wunderground v.1.15,2013-02-26 00:07:00,
2013-02-25 19:08:00,33.4,28.5,30.26,WSW,246,0.0,8.0,82,0.00,,,0.00,Wunderground v.1.15,2013-02-26 00:08:00,
2013-02-25 19:10:00,33.3,28.4,30.26,WSW,246,0.0,8.0,82,0.00,,,0.00,Wunderground v.1.15,2013-02-26 00:10:00,
2013-02-25 19:11:00,33.3,28.4,30.26,WSW,246,0.0,8.0,82,0.00,,,0.00,Wunderground v.1.15,2013-02-26 00:11:00,
2013-02-25 19:13:00,33.2,28.3,30.26,WSW,246,0.0,8.0,82,0.00,,,0.00,Wunderground v.1.15,2013-02-26 00:13:00,
2013-02-25 19:15:00,33.1,28.2,30.26,WSW,246,0.0,8.0,82,0.00,,,0.00,Wunderground v.1.15,2013-02-26 00:15:00,
2013-02-25 19:16:00,33.1,28.2,30.26,WSW,246,0.0,8.0,82,0.00,,,0.00,Wunderground v.1.15,2013-02-26 00:16:00,
2013-02-25 19:19:00,33.0,28.1,30.26,WSW,246,0.0,8.0,82,0.00,,,0.00,Wunderground v.1.15,2013-02-26 00:19:00,
2013-02-25 19:21:00,32.9,28.3,30.26,WSW,246,0.0,8.0,83,0.00,,,0.00,Wunderground v.1.15,2013-02-26 00:21:00,
2013-02-25 19:23:00,33.0,28.4,30.26,WSW,246,0.0,8.0,83,0.00,,,0.00,Wunderground v.1.15,2013-02-26 00:23:00,
2013-02-25 19:25:00,33.0,28.4,30.26,WSW,246,0.0,8.0,83,0.00,,,0.00,Wunderground v.1.15,2013-02-26 00:25:00,
2013-02-25 19:27:00,33.0,28.4,30.26,WSW,246,0.0,8.0,83,0.00,,,0.00,Wunderground v.1.15,2013-02-26 00:27:00,
2013-02-25 19:29:00,33.1,28.5,30.27,WSW,246,0.0,8.0,83,0.00,,,0.00,Wunderground v.1.15,2013-02-26 00:29:00,
2013-02-25 19:31:00,33.0,28.4,30.27,WSW,246,0.0,8.0,83,0.00,,,0.00,Wunderground v.1.15,2013-02-26 00:31:00,
2013-02-25 19:32:00,33.0,28.4,30.27,WSW,246,0.0,8.0,83,0.00,,,0.00,Wunderground v.1.15,2013-02-26 00:32:00,
2013-02-25 19:33:00,33.0,28.4,30.27,WSW,246,0.0,8.0,83,0.00,,,0.00,Wunderground v.1.15,2013-02-26 00:33:00,
2013-02-25 19:36:00,33.0,28.4,30.26,WSW,246,0.0,8.0,83,0.00,,,0.00,Wunderground v.1.15,2013-02-26 00:36:00,
2013-02-25 19:38:00,33.0,28.4,30.26,WSW,246,0.0,8.0,83,0.00,,,0.00,Wunderground v.1.15,2013-02-26 00:38:00,
2013-02-25 19:39:00,33.0,28.4,30.26,WSW,246,0.0,8.0,83,0.00,,,0.00,Wunderground v.1.15,2013-02-26 00:39:00,
2013-02-25 19:41:00,32.9,28.3,30.26,WSW,246,0.0,8.0,83,0.00,,,0.00,Wunderground v.1.15,2013-02-26 00:41:00,
2013-02-25 19:42:00,33.0,28.4,30.26,WSW,246,0.0,8.0,83,0.00,,,0.00,Wunderground v.1.15,2013-02-26 00:42:00,
2013-02-25 19:43:00,33.0,28.4,30.26,WSW,246,0.0,8.0,83,0.00,,,0.00,Wunderground v.1.15,2013-02-26 00:43:00,
2013-02-25 19:45:00,32.9,28.3,30.26,WSW,246,0.0,8.0,83,0.00,,,0.00,Wunderground v.1.15,2013-02-26 00:45:00,
2013-02-25 19:46:00,32.9,28.3,30.27,WSW,246,0.0,8.0,83,0.00,,,0.00,Wunderground v.1.15,2013-02-26 00:46:00,
2013-02-25 19:49:00,32.9,28.3,30.26,WSW,246,0.0,8.0,83,0.00,,,0.00,Wunderground v.1.15,2013-02-26 00:49:00,
2013-02-25 19:50:00,33.0,28.4,30.27,WSW,246,0.0,8.0,83,0.00,,,0.00,Wunderground v.1.15,2013-02-26 00:50:00,
2013-02-25 19:51:00,33.0,28.4,30.27,WSW,246,0.0,8.0,83,0.00,,,0.00,Wunderground v.1.15,2013-02-26 00:51:00,
2013-02-25 19:54:00,32.9,28.3,30.27,WSW,246,0.0,8.0,83,0.00,,,0.00,Wunderground v.1.15,2013-02-26 00:54:00,
2013-02-25 19:56:00,32.8,28.2,30.27,WSW,246,0.0,8.0,83,0.00,,,0.00,Wunderground v.1.15,2013-02-26 00:56:00,
2013-02-25 19:59:00,32.8,28.2,30.26,WSW,246,0.0,8.0,83,0.00,,,0.00,Wunderground v.1.15,2013-02-26 00:59:00,
2013-02-25 20:01:00,32.8,28.5,30.26,WSW,246,0.0,8.0,84,0.00,,,0.00,Wunderground v.1.15,2013-02-26 01:01:00,
2013-02-25 20:02:00,32.8,28.5,30.26,WSW,246,0.0,8.0,84,0.00,,,0.00,Wunderground v.1.15,2013-02-26 01:02:00,
2013-02-25 20:03:00,32.9,28.6,30.26,WSW,246,0.0,8.0,84,0.00,,,0.00,Wunderground v.1.15,2013-02-26 01:03:00,
2013-02-25 20:06:00,32.9,28.6,30.26,WSW,246,0.0,8.0,84,0.00,,,0.00,Wunderground v.1.15,2013-02-26 01:06:00,
2013-02-25 20:08:00,32.8,28.2,30.26,WSW,246,0.0,8.0,83,0.00,,,0.00,Wunderground v.1.15,2013-02-26 01:08:00,
2013-02-25 20:09:00,32.8,28.2,30.26,WSW,246,0.0,8.0,83,0.00,,,0.00,Wunderground v.1.15,2013-02-26 01:09:00,
2013-02-25 20:13:00,32.8,28.5,30.26,WSW,246,0.0,8.0,84,0.00,,,0.00,Wunderground v.1.15,2013-02-26 01:13:00,
2013-02-25 20:15:00,32.8,28.5,30.26,WSW,246,0.0,8.0,84,0.00,,,0.00,Wunderground v.1.15,2013-02-26 01:15:00,
2013-02-25 20:16:00,32.8,28.5,30.26,WSW,246,0.0,8.0,84,0.00,,,0.00,Wunderground v.1.15,2013-02-26 01:16:00,
2013-02-25 20:18:00,32.8,28.2,30.26,WSW,246,0.0,8.0,83,0.00,,,0.00,Wunderground v.1.15,2013-02-26 01:18:00,
2013-02-25 20:20:00,32.8,28.2,30.26,WSW,246,0.0,8.0,83,0.00,,,0.00,Wunderground v.1.15,2013-02-26 01:20:00,
2013-02-25 20:21:00,32.8,28.2,30.26,WSW,246,0.0,8.0,83,0.00,,,0.00,Wunderground v.1.15,2013-02-26 01:21:00,
2013-02-25 20:24:00,32.8,28.2,30.26,WSW,246,0.0,8.0,83,0.00,,,0.00,Wunderground v.1.15,2013-02-26 01:24:00,
2013-02-25 20:25:00,32.7,28.1,30.26,WSW,246,0.0,8.0,83,0.00,,,0.00,Wunderground v.1.15,2013-02-26 01:25:00,
2013-02-25 20:27:00,32.7,28.1,30.26,WSW,246,0.0,8.0,83,0.00,,,0.00,Wunderground v.1.15,2013-02-26 01:27:00,
2013-02-25 20:29:00,32.7,28.4,30.26,WSW,246,0.0,8.0,84,0.00,,,0.00,Wunderground v.1.15,2013-02-26 01:29:00,
2013-02-25 20:31:00,32.7,28.4,30.26,WSW,246,0.0,8.0,84,0.00,,,0.00,Wunderground v.1.15,2013-02-26 01:31:00,
2013-02-25 20:34:00,32.7,28.4,30.26,WSW,246,0.0,8.0,84,0.00,,,0.00,Wunderground v.1.15,2013-02-26 01:34:00,
2013-02-25 20:35:00,32.7,28.4,30.26,WSW,246,0.0,8.0,84,0.00,,,0.00,Wunderground v.1.15,2013-02-26 01:35:00,
2013-02-25 20:36:00,32.7,28.4,30.26,WSW,246,0.0,8.0,84,0.00,,,0.00,Wunderground v.1.15,2013-02-26 01:36:00,
2013-02-25 20:40:00,32.7,28.4,30.26,WSW,246,0.0,8.0,84,0.00,,,0.00,Wunderground v.1.15,2013-02-26 01:40:00,
2013-02-25 20:42:00,32.7,28.4,30.26,WSW,246,0.0,8.0,84,0.00,,,0.00,Wunderground v.1.15,2013-02-26 01:42:00,
2013-02-25 20:47:00,32.5,27.9,30.26,WSW,246,0.0,8.0,83,0.00,,,0.00,Wunderground v.1.15,2013-02-26 01:47:00,
2013-02-25 20:48:00,32.5,27.9,30.26,WSW,246,0.0,8.0,83,0.00,,,0.00,Wunderground v.1.15,2013-02-26 01:48:00,
2013-02-25 20:51:00,32.4,28.1,30.26,WSW,246,0.0,8.0,84,0.00,,,0.00,Wunderground v.1.15,2013-02-26 01:51:00,
2013-02-25 20:52:00,32.4,28.1,30.26,WSW,246,0.0,8.0,84,0.00,,,0.00,Wunderground v.1.15,2013-02-26 01:52:00,
2013-02-25 20:54:00,32.4,28.1,30.26,WSW,246,0.0,8.0,84,0.00,,,0.00,Wunderground v.1.15,2013-02-26 01:54:00,
2013-02-25 20:57:00,32.3,28.0,30.26,WSW,246,0.0,8.0,84,0.00,,,0.00,Wunderground v.1.15,2013-02-26 01:57:00,
2013-02-25 20:59:00,32.3,28.0,30.26,WSW,246,0.0,8.0,84,0.00,,,0.00,Wunderground v.1.15,2013-02-26 01:59:00,
2013-02-25 21:01:00,32.3,28.0,30.26,WSW,246,0.0,8.0,84,0.00,,,0.00,Wunderground v.1.15,2013-02-26 02:01:00,
2013-02-25 21:03:00,32.2,27.9,30.26,WSW,246,0.0,8.0,84,0.00,,,0.00,Wunderground v.1.15,2013-02-26 02:03:00,
2013-02-25 21:04:00,32.2,27.9,30.26,WSW,246,0.0,8.0,84,0.00,,,0.00,Wunderground v.1.15,2013-02-26 02:04:00,
2013-02-25 21:05:00,32.1,27.8,30.26,WSW,246,0.0,8.0,84,0.00,,,0.00,Wunderground v.1.15,2013-02-26 02:05:00,
2013-02-25 21:10:00,32.1,28.1,30.27,WSW,246,0.0,8.0,85,0.00,,,0.00,Wunderground v.1.15,2013-02-26 02:10:00,
2013-02-25 21:11:00,32.1,28.1,30.27,WSW,246,0.0,8.0,85,0.00,,,0.00,Wunderground v.1.15,2013-02-26 02:11:00,
2013-02-25 21:12:00,32.1,28.1,30.27,WSW,246,0.0,8.0,85,0.00,,,0.00,Wunderground v.1.15,2013-02-26 02:12:00,
2013-02-25 21:13:00,32.0,28.0,30.27,WSW,245,0.0,8.0,85,0.00,,,0.00,Wunderground v.1.15,2013-02-26 02:13:00,
2013-02-25 21:15:00,32.0,28.0,30.27,WSW,246,0.0,8.0,85,0.00,,,0.00,Wunderground v.1.15,2013-02-26 02:15:00,
2013-02-25 21:16:00,31.9,27.9,30.27,WSW,246,0.0,8.0,85,0.00,,,0.00,Wunderground v.1.15,2013-02-26 02:16:00,
2013-02-25 21:17:00,31.9,27.9,30.27,WSW,245,0.0,8.0,85,0.00,,,0.00,Wunderground v.1.15,2013-02-26 02:17:00,
2013-02-25 21:18:00,31.9,27.9,30.27,WSW,246,0.0,8.0,85,0.00,,,0.00,Wunderground v.1.15,2013-02-26 02:18:00,
2013-02-25 21:20:00,31.9,27.9,30.27,WSW,245,0.0,8.0,85,0.00,,,0.00,Wunderground v.1.15,2013-02-26 02:20:00,
2013-02-25 21:21:00,31.8,27.8,30.26,WSW,246,0.0,8.0,85,0.00,,,0.00,Wunderground v.1.15,2013-02-26 02:21:00,
2013-02-25 21:22:00,31.8,27.8,30.26,WSW,245,0.0,8.0,85,0.00,,,0.00,Wunderground v.1.15,2013-02-26 02:22:00,
2013-02-25 21:23:00,31.8,27.8,30.26,WSW,246,0.0,8.0,85,0.00,,,0.00,Wunderground v.1.15,2013-02-26 02:23:00,
2013-02-25 21:25:00,31.8,27.8,30.26,WSW,246,0.0,8.0,85,0.00,,,0.00,Wunderground v.1.15,2013-02-26 02:25:00,
2013-02-25 21:27:00,31.8,28.1,30.26,WSW,246,0.0,8.0,86,0.00,,,0.00,Wunderground v.1.15,2013-02-26 02:27:00,
2013-02-25 21:29:00,31.8,28.1,30.26,WSW,246,0.0,8.0,86,0.00,,,0.00,Wunderground v.1.15,2013-02-26 02:29:00,
2013-02-25 21:30:00,31.8,28.1,30.26,WSW,246,0.0,8.0,86,0.00,,,0.00,Wunderground v.1.15,2013-02-26 02:30:00,
2013-02-25 21:32:00,31.8,28.1,30.27,WSW,246,0.0,8.0,86,0.00,,,0.00,Wunderground v.1.15,2013-02-26 02:32:00,
2013-02-25 21:35:00,31.8,28.1,30.27,WSW,246,0.0,8.0,86,0.00,,,0.00,Wunderground v.1.15,2013-02-26 02:35:00,
2013-02-25 21:36:00,31.8,28.1,30.27,WSW,246,0.0,8.0,86,0.00,,,0.00,Wunderground v.1.15,2013-02-26 02:36:00,
2013-02-25 21:37:00,31.7,28.0,30.27,WSW,245,0.0,8.0,86,0.00,,,0.00,Wunderground v.1.15,2013-02-26 02:37:00,
2013-02-25 21:38:00,31.7,28.0,30.27,WSW,245,0.0,8.0,86,0.00,,,0.00,Wunderground v.1.15,2013-02-26 02:38:00,
2013-02-25 21:40:00,31.7,28.0,30.27,WSW,245,0.0,8.0,86,0.00,,,0.00,Wunderground v.1.15,2013-02-26 02:40:00,
2013-02-25 21:43:00,31.7,28.0,30.27,WSW,246,0.0,8.0,86,0.00,,,0.00,Wunderground v.1.15,2013-02-26 02:43:00,
2013-02-25 21:44:00,31.8,28.1,30.27,WSW,246,0.0,8.0,86,0.00,,,0.00,Wunderground v.1.15,2013-02-26 02:44:00,
2013-02-25 21:48:00,31.9,28.2,30.27,WSW,246,0.0,8.0,86,0.00,,,0.00,Wunderground v.1.15,2013-02-26 02:48:00,
2013-02-25 21:49:00,31.9,28.2,30.27,WSW,246,0.0,8.0,86,0.00,,,0.00,Wunderground v.1.15,2013-02-26 02:49:00,
2013-02-25 21:50:00,31.9,28.2,30.27,WSW,246,0.0,8.0,86,0.00,,,0.00,Wunderground v.1.15,2013-02-26 02:50:00,
2013-02-25 21:53:00,31.9,28.2,30.27,WSW,246,0.0,8.0,86,0.00,,,0.00,Wunderground v.1.15,2013-02-26 02:53:00,
2013-02-25 21:55:00,31.9,28.2,30.27,WSW,246,0.0,8.0,86,0.00,,,0.00,Wunderground v.1.15,2013-02-26 02:55:00,
2013-02-25 21:58:00,31.9,28.2,30.27,WSW,246,0.0,8.0,86,0.00,,,0.00,Wunderground v.1.15,2013-02-26 02:58:00,
2013-02-25 21:59:00,31.9,28.2,30.27,WSW,246,0.0,8.0,86,0.00,,,0.00,Wunderground v.1.15,2013-02-26 02:59:00,
2013-02-25 22:01:00,32.0,28.3,30.27,WSW,246,0.0,8.0,86,0.00,,,0.00,Wunderground v.1.15,2013-02-26 03:01:00,
2013-02-25 22:03:00,32.1,28.4,30.28,WSW,246,0.0,8.0,86,0.00,,,0.00,Wunderground v.1.15,2013-02-26 03:03:00,
2013-02-25 22:04:00,32.1,28.4,30.28,WSW,246,0.0,8.0,86,0.00,,,0.00,Wunderground v.1.15,2013-02-26 03:04:00,
2013-02-25 22:06:00,32.2,28.5,30.28,WSW,246,0.0,8.0,86,0.00,,,0.00,Wunderground v.1.15,2013-02-26 03:06:00,
2013-02-25 22:08:00,32.3,28.6,30.27,WSW,246,0.0,8.0,86,0.00,,,0.00,Wunderground v.1.15,2013-02-26 03:08:00,
2013-02-25 22:09:00,32.3,28.6,30.27,WSW,246,0.0,8.0,86,0.00,,,0.00,Wunderground v.1.15,2013-02-26 03:09:00,
2013-02-25 22:10:00,32.3,28.6,30.28,WSW,246,0.0,8.0,86,0.00,,,0.00,Wunderground v.1.15,2013-02-26 03:10:00,
2013-02-25 22:13:00,32.3,28.3,30.28,WSW,246,0.0,8.0,85,0.00,,,0.00,Wunderground v.1.15,2013-02-26 03:13:00,
2013-02-25 22:15:00,32.4,28.4,30.27,WSW,246,0.0,8.0,85,0.00,,,0.00,Wunderground v.1.15,2013-02-26 03:15:00,
2013-02-25 22:16:00,32.4,28.4,30.27,WSW,246,0.0,8.0,85,0.00,,,0.00,Wunderground v.1.15,2013-02-26 03:16:00,
2013-02-25 22:17:00,32.4,28.4,30.28,WSW,246,0.0,8.0,85,0.00,,,0.00,Wunderground v.1.15,2013-02-26 03:17:00,
2013-02-25 22:21:00,32.4,28.4,30.27,WSW,245,0.0,8.0,85,0.00,,,0.00,Wunderground v.1.15,2013-02-26 03:21:00,
2013-02-25 22:22:00,32.4,28.4,30.27,WSW,246,0.0,8.0,85,0.00,,,0.00,Wunderground v.1.15,2013-02-26 03:22:00,
2013-02-25 22:23:00,32.4,28.1,30.27,WSW,246,0.0,8.0,84,0.00,,,0.00,Wunderground v.1.15,2013-02-26 03:23:00,
2013-02-25 22:27:00,32.3,28.3,30.27,WSW,246,0.0,8.0,85,0.00,,,0.00,Wunderground v.1.15,2013-02-26 03:27:00,
2013-02-25 22:28:00,32.3,28.3,30.27,WSW,246,0.0,8.0,85,0.00,,,0.00,Wunderground v.1.15,2013-02-26 03:28:00,
2013-02-25 22:29:00,32.3,28.3,30.27,WSW,246,0.0,8.0,85,0.00,,,0.00,Wunderground v.1.15,2013-02-26 03:29:00,
2013-02-25 22:31:00,32.2,27.9,30.27,WSW,246,0.0,8.0,84,0.00,,,0.00,Wunderground v.1.15,2013-02-26 03:31:00,
2013-02-25 22:34:00,32.1,27.8,30.27,WSW,245,0.0,8.0,84,0.00,,,0.00,Wunderground v.1.15,2013-02-26 03:34:00,
2013-02-25 22:35:00,32.1,27.8,30.27,WSW,246,0.0,8.0,84,0.00,,,0.00,Wunderground v.1.15,2013-02-26 03:35:00,
2013-02-25 22:36:00,32.0,28.0,30.27,WSW,246,0.0,8.0,85,0.00,,,0.00,Wunderground v.1.15,2013-02-26 03:36:00,
2013-02-25 22:37:00,32.0,28.0,30.27,WSW,246,0.0,8.0,85,0.00,,,0.00,Wunderground v.1.15,2013-02-26 03:37:00,
2013-02-25 22:39:00,31.9,27.9,30.27,WSW,246,0.0,8.0,85,0.00,,,0.00,Wunderground v.1.15,2013-02-26 03:39:00,
2013-02-25 22:43:00,32.0,28.3,30.27,WSW,245,0.0,8.0,86,0.00,,,0.00,Wunderground v.1.15,2013-02-26 03:43:00,
2013-02-25 22:44:00,32.0,28.3,30.27,WSW,246,0.0,8.0,86,0.00,,,0.00,Wunderground v.1.15,2013-02-26 03:44:00,
2013-02-25 22:46:00,32.0,28.3,30.27,WSW,246,0.0,8.0,86,0.00,,,0.00,Wunderground v.1.15,2013-02-26 03:46:00,
2013-02-25 22:50:00,32.0,28.3,30.27,WSW,245,0.0,8.0,86,0.00,,,0.00,Wunderground v.1.15,2013-02-26 03:50:00,
2013-02-25 22:51:00,32.1,28.4,30.27,WSW,245,0.0,8.0,86,0.00,,,0.00,Wunderground v.1.15,2013-02-26 03:51:00,
2013-02-25 22:52:00,32.1,28.4,30.27,WSW,244,0.0,8.0,86,0.00,,,0.00,Wunderground v.1.15,2013-02-26 03:52:00,
2013-02-25 22:53:00,32.1,28.1,30.27,WSW,245,0.0,8.0,85,0.00,,,0.00,Wunderground v.1.15,2013-02-26 03:53:00,
2013-02-25 22:57:00,32.1,28.1,30.27,WSW,246,0.0,8.0,85,0.00,,,0.00,Wunderground v.1.15,2013-02-26 03:57:00,
2013-02-25 22:58:00,32.1,28.1,30.27,WSW,245,0.0,8.0,85,0.00,,,0.00,Wunderground v.1.15,2013-02-26 03:58:00,
2013-02-25 23:00:00,32.0,28.3,30.27,WSW,245,0.0,8.0,86,0.00,,,0.00,Wunderground v.1.15,2013-02-26 04:00:00,
2013-02-25 23:02:00,31.9,28.2,30.27,WSW,246,0.0,8.0,86,0.00,,,0.00,Wunderground v.1.15,2013-02-26 04:02:00,
2013-02-25 23:05:00,31.8,28.1,30.27,WSW,246,0.0,8.0,86,0.00,,,0.00,Wunderground v.1.15,2013-02-26 04:05:00,
2013-02-25 23:06:00,31.7,28.0,30.27,WSW,245,0.0,8.0,86,0.00,,,0.00,Wunderground v.1.15,2013-02-26 04:06:00,
2013-02-25 23:08:00,31.5,27.8,30.27,WSW,246,0.0,8.0,86,0.00,,,0.00,Wunderground v.1.15,2013-02-26 04:08:00,
2013-02-25 23:09:00,31.4,27.7,30.27,WSW,246,0.0,8.0,86,0.00,,,0.00,Wunderground v.1.15,2013-02-26 04:09:00,
2013-02-25 23:10:00,31.4,27.7,30.27,WSW,246,0.0,8.0,86,0.00,,,0.00,Wunderground v.1.15,2013-02-26 04:10:00,
2013-02-25 23:11:00,31.3,27.6,30.27,WSW,246,0.0,8.0,86,0.00,,,0.00,Wunderground v.1.15,2013-02-26 04:11:00,
2013-02-25 23:15:00,30.9,27.2,30.26,WSW,246,0.0,8.0,86,0.00,,,0.00,Wunderground v.1.15,2013-02-26 04:15:00,
2013-02-25 23:16:00,30.8,27.4,30.26,WSW,246,0.0,8.0,87,0.00,,,0.00,Wunderground v.1.15,2013-02-26 04:16:00,
2013-02-25 23:19:00,30.5,27.1,30.26,WSW,245,0.0,8.0,87,0.00,,,0.00,Wunderground v.1.15,2013-02-26 04:19:00,
2013-02-25 23:21:00,30.4,27.0,30.26,WSW,246,0.0,8.0,87,0.00,,,0.00,Wunderground v.1.15,2013-02-26 04:21:00,
2013-02-25 23:22:00,30.2,26.8,30.26,WSW,246,0.0,8.0,87,0.00,,,0.00,Wunderground v.1.15,2013-02-26 04:22:00,
2013-02-25 23:23:00,30.2,26.8,30.26,WSW,246,0.0,8.0,87,0.00,,,0.00,Wunderground v.1.15,2013-02-26 04:23:00,
2013-02-25 23:27:00,29.8,26.7,30.26,WSW,246,0.0,8.0,88,0.00,,,0.00,Wunderground v.1.15,2013-02-26 04:27:00,
2013-02-25 23:28:00,29.8,26.7,30.26,WSW,246,0.0,8.0,88,0.00,,,0.00,Wunderground v.1.15,2013-02-26 04:28:00,
2013-02-25 23:30:00,29.6,26.5,30.26,WSW,246,0.0,8.0,88,0.00,,,0.00,Wunderground v.1.15,2013-02-26 04:30:00,
2013-02-25 23:33:00,29.3,26.2,30.26,WSW,246,0.0,8.0,88,0.00,,,0.00,Wunderground v.1.15,2013-02-26 04:33:00,
2013-02-25 23:35:00,29.1,26.0,30.26,WSW,246,0.0,8.0,88,0.00,,,0.00,Wunderground v.1.15,2013-02-26 04:35:00,
2013-02-25 23:37:00,28.9,26.1,30.26,WSW,246,0.0,8.0,89,0.00,,,0.00,Wunderground v.1.15,2013-02-26 04:37:00,
2013-02-25 23:39:00,28.8,26.0,30.26,WSW,246,0.0,8.0,89,0.00,,,0.00,Wunderground v.1.15,2013-02-26 04:39:00,
2013-02-25 23:40:00,28.8,26.0,30.26,WSW,246,0.0,8.0,89,0.00,,,0.00,Wunderground v.1.15,2013-02-26 04:40:00,
2013-02-25 23:41:00,28.8,26.0,30.26,WSW,246,0.0,8.0,89,0.00,,,0.00,Wunderground v.1.15,2013-02-26 04:41:00,
2013-02-25 23:44:00,28.6,26.0,30.25,WSW,246,0.0,8.0,90,0.00,,,0.00,Wunderground v.1.15,2013-02-26 04:44:00,
2013-02-25 23:47:00,28.5,25.9,30.25,WSW,246,0.0,8.0,90,0.00,,,0.00,Wunderground v.1.15,2013-02-26 04:47:00,
2013-02-25 23:49:00,28.4,25.8,30.25,WSW,246,0.0,8.0,90,0.00,,,0.00,Wunderground v.1.15,2013-02-26 04:49:00,
2013-02-25 23:51:00,28.3,25.7,30.25,WSW,246,0.0,8.0,90,0.00,,,0.00,Wunderground v.1.15,2013-02-26 04:51:00,
2013-02-25 23:52:00,28.2,25.6,30.25,WSW,246,0.0,8.0,90,0.00,,,0.00,Wunderground v.1.15,2013-02-26 04:52:00,
2013-02-25 23:54:00,28.1,25.5,30.25,WSW,246,0.0,8.0,90,0.00,,,0.00,Wunderground v.1.15,2013-02-26 04:54:00,
2013-02-25 23:55:00,28.0,25.4,30.25,WSW,246,0.0,8.0,90,0.00,,,0.00,Wunderground v.1.15,2013-02-26 04:55:00,
2013-02-25 23:56:00,27.9,25.3,30.25,WSW,246,0.0,8.0,90,0.00,,,0.00,Wunderground v.1.15,2013-02-26 04:56:00,